CUB471 LEMD-MUHA

Flight info

Callsign CUB471
Flight time 9h 22m
Altitude 30000
Route BARDI DCT VIS DCT DIRMA DCT IBIDO DCT DETOX/M084F320 DCT 40N020W 38N030W 35N040W 32N050W/M084F340 DCT AMENO M593 GRATX/N0492F340 M329 LASEE/N0484F360 M329 ZQA R628 TANIA EPMAR2
Aircraft B77W/H-SDE1E2E3FGHIJ2J3J4J5M1RWXY/LB1D1

Departure

Time 2026-05-05 05:25
Airport Adolfo Suárez Madrid–Barajas Airport (LEMD)

Arrival

Time 2026-05-05 14:47
Airport José Martí International Airport (MUHA)
Time Latitude Longitude Altitude Speed Heading
2026-05-05 03:50 40.46144 -3.57346 1966 ft 0 kts 314°
2026-05-05 04:57 40.46142 -3.57343 1965 ft 2 kts 314°
2026-05-05 04:57 40.46128 -3.57325 1965 ft 2 kts 314°
2026-05-05 04:58 40.46121 -3.57315 1965 ft 2 kts 316°
2026-05-05 04:58 40.46109 -3.57304 1965 ft 2 kts 341°
2026-05-05 04:58 40.46095 -3.57300 1965 ft 2 kts
2026-05-05 04:58 40.46080 -3.57304 1965 ft 2 kts 22°
2026-05-05 04:59 40.46063 -3.57317 1965 ft 2 kts 40°
2026-05-05 04:59 40.46056 -3.57326 1965 ft 2 kts 46°
2026-05-05 04:59 40.46046 -3.57340 1965 ft 2 kts 40°
2026-05-05 04:59 40.46033 -3.57350 1965 ft 2 kts 20°
2026-05-05 05:00 40.46019 -3.57355 1965 ft 2 kts
2026-05-05 05:00 40.46004 -3.57355 1965 ft 2 kts 351°
2026-05-05 05:00 40.45990 -3.57350 1965 ft 2 kts 336°
2026-05-05 05:00 40.45977 -3.57340 1965 ft 2 kts 321°
2026-05-05 05:01 40.45966 -3.57327 1965 ft 2 kts 312°
2026-05-05 05:01 40.45953 -3.57307 1965 ft 2 kts 314°
2026-05-05 05:01 40.45946 -3.57298 1965 ft 2 kts 315°
2026-05-05 05:01 40.45932 -3.57280 1965 ft 2 kts 315°
2026-05-05 05:02 40.45925 -3.57270 1965 ft 2 kts 314°
2026-05-05 05:02 40.45915 -3.57256 1965 ft 2 kts 314°
2026-05-05 05:02 40.45905 -3.57242 1965 ft 2 kts 314°
2026-05-05 05:02 40.45894 -3.57228 1965 ft 2 kts 314°
2026-05-05 05:03 40.45883 -3.57214 1965 ft 2 kts 314°
2026-05-05 05:03 40.45873 -3.57200 1965 ft 2 kts 314°
2026-05-05 05:03 40.45862 -3.57185 1965 ft 2 kts 314°
2026-05-05 05:03 40.45851 -3.57171 1965 ft 2 kts 315°
2026-05-05 05:04 40.45841 -3.57157 1965 ft 2 kts 314°
2026-05-05 05:04 40.45831 -3.57143 1965 ft 2 kts 314°
2026-05-05 05:04 40.45820 -3.57129 1965 ft 2 kts 314°
2026-05-05 05:04 40.45810 -3.57115 1965 ft 2 kts 314°
2026-05-05 05:05 40.45799 -3.57100 1965 ft 2 kts 314°
2026-05-05 05:05 40.45789 -3.57086 1965 ft 2 kts 314°
2026-05-05 05:05 40.45775 -3.57067 1965 ft 2 kts 314°
2026-05-05 05:05 40.45768 -3.57058 1965 ft 2 kts 314°
2026-05-05 05:06 40.45757 -3.57044 1965 ft 2 kts 315°
2026-05-05 05:06 40.45747 -3.57030 1965 ft 2 kts 315°
2026-05-05 05:06 40.45739 -3.57019 1965 ft 0 kts 314°
2026-05-05 05:06 40.45748 -3.57028 1965 ft 2 kts 331°
2026-05-05 05:07 40.45771 -3.57027 1965 ft 2 kts 25°
2026-05-05 05:07 40.45785 -3.57008 1965 ft 2 kts 61°
2026-05-05 05:07 40.45792 -3.56989 1965 ft 2 kts 65°
2026-05-05 05:07 40.45797 -3.56978 1965 ft 2 kts 57°
2026-05-05 05:08 40.45803 -3.56970 1965 ft 0 kts 45°
2026-05-05 05:08 40.45803 -3.56969 1965 ft 0 kts 45°
2026-05-05 05:11 40.45811 -3.56959 1965 ft 2 kts 45°
2026-05-05 05:11 40.45831 -3.56933 1965 ft 5 kts 45°
2026-05-05 05:11 40.45877 -3.56875 1965 ft 7 kts 44°
2026-05-05 05:11 40.45920 -3.56820 1965 ft 9 kts 44°
2026-05-05 05:12 40.45975 -3.56770 1965 ft 10 kts 22°
2026-05-05 05:12 40.46023 -3.56757 1965 ft 10 kts
2026-05-05 05:12 40.46093 -3.56756 1965 ft 9 kts 360°
2026-05-05 05:12 40.46148 -3.56757 1965 ft 7 kts 360°
2026-05-05 05:13 40.46203 -3.56741 1965 ft 8 kts 36°
2026-05-05 05:13 40.46231 -3.56647 1965 ft 8 kts 62°
2026-05-05 05:13 40.46263 -3.56617 1965 ft 9 kts 18°
2026-05-05 05:13 40.46355 -3.56597 1965 ft 11 kts
2026-05-05 05:14 40.46408 -3.56594 1965 ft 12 kts
2026-05-05 05:14 40.46497 -3.56587 1965 ft 13 kts
2026-05-05 05:14 40.46594 -3.56579 1965 ft 14 kts
2026-05-05 05:14 40.46732 -3.56570 1965 ft 15 kts
2026-05-05 05:15 40.46842 -3.56560 1965 ft 16 kts
2026-05-05 05:15 40.46920 -3.56553 1965 ft 16 kts
2026-05-05 05:15 40.47039 -3.56558 1965 ft 17 kts 348°
2026-05-05 05:15 40.47149 -3.56623 1965 ft 17 kts 325°
2026-05-05 05:16 40.47251 -3.56724 1965 ft 18 kts 322°
2026-05-05 05:16 40.47353 -3.56829 1965 ft 18 kts 322°
2026-05-05 05:16 40.47458 -3.56936 1965 ft 19 kts 322°
2026-05-05 05:16 40.47599 -3.57082 1965 ft 19 kts 322°
2026-05-05 05:17 40.47671 -3.57156 1965 ft 19 kts 322°
2026-05-05 05:17 40.47819 -3.57306 1965 ft 20 kts 322°
2026-05-05 05:17 40.47893 -3.57382 1965 ft 20 kts 322°
2026-05-05 05:17 40.48005 -3.57497 1965 ft 20 kts 322°
2026-05-05 05:18 40.48119 -3.57614 1965 ft 20 kts 323°
2026-05-05 05:18 40.48233 -3.57729 1965 ft 20 kts 322°
2026-05-05 05:18 40.48344 -3.57842 1965 ft 20 kts 324°
2026-05-05 05:18 40.48500 -3.57973 1965 ft 19 kts 328°
2026-05-05 05:19 40.48622 -3.58049 1965 ft 19 kts 352°
2026-05-05 05:19 40.48711 -3.58052 1965 ft 18 kts
2026-05-05 05:19 40.48827 -3.58051 1965 ft 9 kts 12°
2026-05-05 05:19 40.48858 -3.57995 1965 ft 7 kts 90°
2026-05-05 05:20 40.48857 -3.57934 1965 ft 6 kts 90°
2026-05-05 05:20 40.48857 -3.57896 1965 ft 6 kts 90°
2026-05-05 05:20 40.48858 -3.57842 1965 ft 5 kts 89°
2026-05-05 05:20 40.48859 -3.57789 1965 ft 5 kts 86°
2026-05-05 05:21 40.48859 -3.57738 1965 ft 5 kts 91°
2026-05-05 05:21 40.48859 -3.57688 1965 ft 5 kts 91°
2026-05-05 05:21 40.48868 -3.57646 1965 ft 4 kts 53°
2026-05-05 05:21 40.48912 -3.57624 1965 ft 6 kts
2026-05-05 05:22 40.48945 -3.57624 1965 ft 7 kts
2026-05-05 05:22 40.49000 -3.57625 1965 ft 8 kts 359°
2026-05-05 05:22 40.49066 -3.57626 1965 ft 10 kts 359°
2026-05-05 05:22 40.49136 -3.57626 1965 ft 9 kts
2026-05-05 05:23 40.49185 -3.57596 1965 ft 7 kts 49°
2026-05-05 05:23 40.49207 -3.57545 1965 ft 5 kts 65°
2026-05-05 05:23 40.49223 -3.57499 1965 ft 5 kts 65°
2026-05-05 05:23 40.49243 -3.57471 1965 ft 3 kts 29°
2026-05-05 05:24 40.49278 -3.57462 1965 ft 6 kts
2026-05-05 05:24 40.49339 -3.57461 1965 ft 23 kts
2026-05-05 05:24 40.49709 -3.57463 1965 ft 83 kts 360°
2026-05-05 05:24 40.50486 -3.57466 1965 ft 138 kts
2026-05-05 05:25 40.52050 -3.57478 2059 ft 189 kts
2026-05-05 05:25 40.52929 -3.57496 2426 ft 188 kts 359°
2026-05-05 05:25 40.54250 -3.57504 3016 ft 191 kts
2026-05-05 05:25 40.55605 -3.57499 3393 ft 197 kts 360°
2026-05-05 05:26 40.56976 -3.57505 3806 ft 200 kts 359°
2026-05-05 05:26 40.58374 -3.57512 4229 ft 202 kts 359°
2026-05-05 05:26 40.59782 -3.57442 4644 ft 204 kts
2026-05-05 05:26 40.61139 -3.56841 5030 ft 208 kts 24°
2026-05-05 05:27 40.62484 -3.56017 5232 ft 223 kts 24°
2026-05-05 05:27 40.63975 -3.55201 5303 ft 243 kts 12°
2026-05-05 05:27 40.67449 -3.55609 6096 ft 256 kts 354°
2026-05-05 05:28 40.69281 -3.55742 6361 ft 273 kts 358°
2026-05-05 05:28 40.71223 -3.55766 6690 ft 287 kts 359°
2026-05-05 05:28 40.73909 -3.55765 7571 ft 289 kts 358°
2026-05-05 05:28 40.75223 -3.55939 7936 ft 290 kts 343°
2026-05-05 05:29 40.77017 -3.57079 8483 ft 289 kts 318°
2026-05-05 05:29 40.78270 -3.59103 9085 ft 286 kts 294°
2026-05-05 05:29 40.78766 -3.61590 9662 ft 285 kts 270°
2026-05-05 05:29 40.78566 -3.64207 10275 ft 286 kts 259°
2026-05-05 05:30 40.78168 -3.66731 10905 ft 286 kts 257°
2026-05-05 05:30 40.77725 -3.69302 11567 ft 286 kts 257°
2026-05-05 05:30 40.77283 -3.71832 12138 ft 289 kts 257°
2026-05-05 05:30 40.76823 -3.74464 12420 ft 302 kts 257°
2026-05-05 05:31 40.76334 -3.77264 12524 ft 322 kts 257°
2026-05-05 05:31 40.75819 -3.80210 12591 ft 342 kts 257°
2026-05-05 05:31 40.75270 -3.83343 12750 ft 360 kts 257°
2026-05-05 05:31 40.74513 -3.87653 13615 ft 363 kts 257°
2026-05-05 05:32 40.74137 -3.89790 14184 ft 362 kts 257°
2026-05-05 05:32 40.73570 -3.93007 14904 ft 363 kts 257°
2026-05-05 05:32 40.72998 -3.96253 15512 ft 366 kts 257°
2026-05-05 05:32 40.72424 -3.99501 16188 ft 367 kts 257°
2026-05-05 05:33 40.71845 -4.02769 16880 ft 368 kts 257°
2026-05-05 05:33 40.71261 -4.06063 17491 ft 371 kts 257°
2026-05-05 05:33 40.70672 -4.09376 18078 ft 374 kts 257°
2026-05-05 05:33 40.70085 -4.12670 18695 ft 375 kts 256°
2026-05-05 05:34 40.69489 -4.16014 19313 ft 376 kts 256°
2026-05-05 05:34 40.68891 -4.19364 19951 ft 377 kts 257°
2026-05-05 05:34 40.68296 -4.22686 20457 ft 380 kts 257°
2026-05-05 05:34 40.67689 -4.26072 21044 ft 381 kts 257°
2026-05-05 05:35 40.67082 -4.29451 21643 ft 381 kts 257°
2026-05-05 05:35 40.66470 -4.32854 22134 ft 384 kts 256°
2026-05-05 05:35 40.65854 -4.36273 22659 ft 385 kts 256°
2026-05-05 05:35 40.65236 -4.39694 23161 ft 387 kts 257°
2026-05-05 05:36 40.64614 -4.43127 23606 ft 390 kts 257°
2026-05-05 05:36 40.63982 -4.46620 24074 ft 392 kts 257°
2026-05-05 05:36 40.63355 -4.50063 24537 ft 393 kts 256°
2026-05-05 05:36 40.62506 -4.53507 24940 ft 396 kts 249°
2026-05-05 05:37 40.61285 -4.56734 25299 ft 400 kts 242°
2026-05-05 05:37 40.59687 -4.59808 25715 ft 402 kts 237°
2026-05-05 05:37 40.58012 -4.62789 26149 ft 404 kts 237°
2026-05-05 05:37 40.56335 -4.65758 26521 ft 405 kts 236°
2026-05-05 05:38 40.54635 -4.68758 26990 ft 406 kts 237°
2026-05-05 05:38 40.52948 -4.71730 27313 ft 409 kts 236°
2026-05-05 05:38 40.51233 -4.74747 27691 ft 410 kts 237°
2026-05-05 05:38 40.49545 -4.77711 28079 ft 411 kts 237°
2026-05-05 05:39 40.47934 -4.80792 28450 ft 410 kts 242°
2026-05-05 05:39 40.46632 -4.84118 28757 ft 410 kts 249°
2026-05-05 05:39 40.45680 -4.87603 29065 ft 411 kts 255°
2026-05-05 05:39 40.45079 -4.91260 29446 ft 411 kts 262°
2026-05-05 05:40 40.44853 -4.96226 29954 ft 411 kts 269°
2026-05-05 05:40 40.44975 -4.98705 29972 ft 412 kts 274°
2026-05-05 05:40 40.45770 -5.06085 29993 ft 410 kts 275°
2026-05-05 05:41 40.46574 -5.13473 29993 ft 412 kts 275°
2026-05-05 05:41 40.47363 -5.20853 29993 ft 410 kts 275°
2026-05-05 05:42 40.48150 -5.28306 29997 ft 412 kts 275°
2026-05-05 05:42 40.48920 -5.35674 29997 ft 409 kts 275°
2026-05-05 05:43 40.49692 -5.43115 30003 ft 413 kts 275°
2026-05-05 05:43 40.50458 -5.50560 30000 ft 412 kts 276°
2026-05-05 05:44 40.51220 -5.58002 30001 ft 413 kts 276°
2026-05-05 05:44 40.51974 -5.65430 30003 ft 411 kts 275°
2026-05-05 05:45 40.52729 -5.72903 30017 ft 412 kts 275°
2026-05-05 05:45 40.53473 -5.80332 30016 ft 413 kts 275°
2026-05-05 05:46 40.54215 -5.87783 30014 ft 413 kts 275°
2026-05-05 05:46 40.54953 -5.95237 30018 ft 414 kts 275°
2026-05-05 05:47 40.55693 -6.02772 30021 ft 416 kts 275°
2026-05-05 05:47 40.56424 -6.10270 30018 ft 414 kts 275°
2026-05-05 05:48 40.57150 -6.17759 30015 ft 415 kts 276°
2026-05-05 05:48 40.57873 -6.25270 30016 ft 417 kts 276°
2026-05-05 05:49 40.58595 -6.32825 30011 ft 414 kts 276°
2026-05-05 05:49 40.59302 -6.40288 30012 ft 416 kts 276°
2026-05-05 05:50 40.60012 -6.47827 30013 ft 415 kts 276°
2026-05-05 05:50 40.60716 -6.55354 30015 ft 417 kts 276°
2026-05-05 05:51 40.61418 -6.62917 30014 ft 414 kts 276°
2026-05-05 05:51 40.62112 -6.70450 30030 ft 418 kts 276°
2026-05-05 05:52 40.62802 -6.77991 30033 ft 419 kts 276°
2026-05-05 05:52 40.63491 -6.85573 30030 ft 418 kts 276°
2026-05-05 05:53 40.64174 -6.93153 30030 ft 418 kts 276°
2026-05-05 05:53 40.64853 -7.00741 30030 ft 419 kts 276°
2026-05-05 05:54 40.65528 -7.08346 30031 ft 422 kts 276°
2026-05-05 05:54 40.66203 -7.16004 30033 ft 418 kts 276°
2026-05-05 05:55 40.66870 -7.23631 30029 ft 421 kts 276°
2026-05-05 05:55 40.67530 -7.31236 30033 ft 419 kts 276°
2026-05-05 05:56 40.68188 -7.38887 30030 ft 424 kts 276°
2026-05-05 05:56 40.68841 -7.46528 30026 ft 419 kts 276°
2026-05-05 05:57 40.69488 -7.54164 30029 ft 421 kts 277°
2026-05-05 05:57 40.70130 -7.61797 30027 ft 421 kts 277°
2026-05-05 05:58 40.70770 -7.69476 30046 ft 423 kts 276°
2026-05-05 05:58 40.71404 -7.77142 30051 ft 424 kts 277°
2026-05-05 05:59 40.72033 -7.84807 30054 ft 421 kts 277°
2026-05-05 05:59 40.72669 -7.92471 30056 ft 424 kts 277°
2026-05-05 06:00 40.73331 -8.00144 30065 ft 424 kts 277°
2026-05-05 06:00 40.73989 -8.07838 30068 ft 425 kts 277°
2026-05-05 06:01 40.74645 -8.15588 30069 ft 423 kts 277°
2026-05-05 06:01 40.75287 -8.23249 30072 ft 423 kts 277°
2026-05-05 06:02 40.75926 -8.30926 30075 ft 425 kts 277°
2026-05-05 06:02 40.76559 -8.38606 30073 ft 424 kts 277°
2026-05-05 06:03 40.77193 -8.46363 30072 ft 423 kts 277°
2026-05-05 06:03 40.77817 -8.54057 30074 ft 428 kts 278°
2026-05-05 06:04 40.78440 -8.61796 30070 ft 422 kts 277°
2026-05-05 06:04 40.79055 -8.69514 30083 ft 428 kts 277°
2026-05-05 06:05 40.79666 -8.77252 30079 ft 424 kts 277°
2026-05-05 06:05 40.80274 -8.85005 30076 ft 426 kts 277°
2026-05-05 06:06 40.80878 -8.92775 30075 ft 427 kts 277°
2026-05-05 06:06 40.81475 -9.00535 30056 ft 426 kts 278°
2026-05-05 06:07 40.82068 -9.08293 30058 ft 426 kts 278°
2026-05-05 06:07 40.82655 -9.16061 30058 ft 427 kts 278°
2026-05-05 06:08 40.83238 -9.23837 30050 ft 428 kts 278°
2026-05-05 06:08 40.83819 -9.31662 30052 ft 429 kts 278°
2026-05-05 06:09 40.84391 -9.39432 30049 ft 430 kts 278°
2026-05-05 06:09 40.84962 -9.47267 30057 ft 429 kts 278°
2026-05-05 06:10 40.85453 -9.55117 30054 ft 430 kts 277°
2026-05-05 06:10 40.85835 -9.62986 30045 ft 432 kts 278°
2026-05-05 06:11 40.86218 -9.70843 30062 ft 431 kts 277°
2026-05-05 06:11 40.86601 -9.78746 30056 ft 432 kts 277°
2026-05-05 06:12 40.86979 -9.86616 30059 ft 432 kts 278°
2026-05-05 06:12 40.87355 -9.94517 30062 ft 433 kts 278°
2026-05-05 06:13 40.87726 -10.02425 30061 ft 432 kts 278°
2026-05-05 06:13 40.88093 -10.10370 30059 ft 433 kts 278°
2026-05-05 06:14 40.88452 -10.18240 30056 ft 434 kts 278°
2026-05-05 06:14 40.88807 -10.26204 30061 ft 433 kts 278°
2026-05-05 06:15 40.89153 -10.34108 30053 ft 432 kts 278°
2026-05-05 06:15 40.89494 -10.42022 30056 ft 434 kts 279°
2026-05-05 06:16 40.89832 -10.49989 30059 ft 435 kts 279°
2026-05-05 06:16 40.90165 -10.57957 30062 ft 435 kts 279°
2026-05-05 06:17 40.90492 -10.65912 30063 ft 435 kts 278°
2026-05-05 06:17 40.90813 -10.73882 30069 ft 435 kts 279°
2026-05-05 06:18 40.91132 -10.81902 30066 ft 438 kts 278°
2026-05-05 06:18 40.91444 -10.89899 30075 ft 441 kts 279°
2026-05-05 06:19 40.91751 -10.97945 30071 ft 438 kts 279°
2026-05-05 06:19 40.92056 -11.06028 30065 ft 440 kts 279°
2026-05-05 06:20 40.92351 -11.14054 30081 ft 441 kts 279°
2026-05-05 06:20 40.92642 -11.22097 30072 ft 439 kts 279°
2026-05-05 06:21 40.92930 -11.30187 30077 ft 443 kts 279°
2026-05-05 06:21 40.93211 -11.38268 30081 ft 443 kts 278°
2026-05-05 06:22 40.93488 -11.46395 30084 ft 446 kts 278°
2026-05-05 06:22 40.93760 -11.54551 30086 ft 446 kts 278°
2026-05-05 06:23 40.94027 -11.62741 30085 ft 446 kts 278°
2026-05-05 06:23 40.94289 -11.70930 30099 ft 447 kts 277°
2026-05-05 06:24 40.94545 -11.79118 30096 ft 448 kts 277°
2026-05-05 06:24 40.94796 -11.87338 30106 ft 450 kts 277°
2026-05-05 06:25 40.95042 -11.95580 30106 ft 452 kts 277°
2026-05-05 06:25 40.95284 -12.03891 30113 ft 455 kts 277°
2026-05-05 06:26 40.95520 -12.12238 30118 ft 454 kts 277°
2026-05-05 06:26 40.95750 -12.20567 30120 ft 454 kts 277°
2026-05-05 06:27 40.96083 -12.33005 30119 ft 454 kts 276°
2026-05-05 06:28 40.96298 -12.41329 30126 ft 455 kts 276°
2026-05-05 06:28 40.96507 -12.49648 30131 ft 456 kts 276°
2026-05-05 06:29 40.96711 -12.58009 30127 ft 456 kts 276°
2026-05-05 06:29 40.96909 -12.66359 30138 ft 457 kts 275°
2026-05-05 06:30 40.97103 -12.74794 30145 ft 458 kts 275°
2026-05-05 06:30 40.97288 -12.83152 30147 ft 458 kts 275°
2026-05-05 06:31 40.97470 -12.91574 30148 ft 459 kts 275°
2026-05-05 06:31 40.97645 -13.00001 30151 ft 459 kts 275°
2026-05-05 06:32 40.97815 -13.08434 30249 ft 467 kts 275°
2026-05-05 06:32 40.97899 -13.12760 30737 ft 465 kts 275°
2026-05-05 06:32 40.97977 -13.16944 31408 ft 456 kts 274°
2026-05-05 06:32 40.98050 -13.21101 31777 ft 448 kts 274°
2026-05-05 06:33 40.98121 -13.25161 31773 ft 447 kts 275°
2026-05-05 06:33 40.98263 -13.33330 31910 ft 441 kts 274°
2026-05-05 06:33 40.98331 -13.37331 32030 ft 436 kts 274°
2026-05-05 06:34 40.98399 -13.41347 32134 ft 432 kts 274°
2026-05-05 06:34 40.98529 -13.49272 32111 ft 432 kts 274°
2026-05-05 06:35 40.98653 -13.57213 32152 ft 436 kts 274°
2026-05-05 06:35 40.98721 -13.61247 32150 ft 447 kts 274°
2026-05-05 06:35 40.98788 -13.65368 32147 ft 457 kts 273°
2026-05-05 06:35 40.98855 -13.69628 32153 ft 468 kts 273°
2026-05-05 06:36 40.98920 -13.73952 32155 ft 475 kts 273°
2026-05-05 06:36 40.99043 -13.82786 32149 ft 486 kts 273°
2026-05-05 06:37 40.99156 -13.91615 32153 ft 477 kts 273°
2026-05-05 06:37 40.99210 -13.95969 32152 ft 465 kts 273°
2026-05-05 06:37 40.99260 -14.00201 32156 ft 454 kts 273°
2026-05-05 06:38 40.99354 -14.08381 32161 ft 451 kts 273°
2026-05-05 06:38 40.99446 -14.16750 32161 ft 459 kts 273°
2026-05-05 06:39 40.99530 -14.25197 32156 ft 458 kts 272°
2026-05-05 06:39 40.99608 -14.33607 32166 ft 459 kts 272°
2026-05-05 06:40 40.99680 -14.41983 32160 ft 459 kts 272°
2026-05-05 06:40 40.99745 -14.50423 32162 ft 460 kts 272°
2026-05-05 06:41 40.99805 -14.58889 32169 ft 459 kts 272°
2026-05-05 06:41 40.99858 -14.67292 32163 ft 460 kts 272°
2026-05-05 06:42 40.99905 -14.75715 32173 ft 460 kts 271°
2026-05-05 06:42 40.99946 -14.84183 32186 ft 461 kts 271°
2026-05-05 06:43 40.99981 -14.92631 32196 ft 461 kts 271°
2026-05-05 06:43 40.99652 -15.01071 32187 ft 463 kts 261°
2026-05-05 06:44 40.98291 -15.09363 32190 ft 463 kts 259°
2026-05-05 06:44 40.96857 -15.17649 32196 ft 462 kts 259°
2026-05-05 06:45 40.95409 -15.25891 32201 ft 462 kts 259°
2026-05-05 06:45 40.93945 -15.34137 32200 ft 462 kts 258°
2026-05-05 06:46 40.92477 -15.42344 32208 ft 461 kts 258°
2026-05-05 06:46 40.91004 -15.50537 32206 ft 462 kts 258°
2026-05-05 06:47 40.89510 -15.58804 32207 ft 462 kts 258°
2026-05-05 06:47 40.88016 -15.67028 32208 ft 462 kts 258°
2026-05-05 06:48 40.86519 -15.75232 32211 ft 461 kts 258°
2026-05-05 06:48 40.85021 -15.83407 32214 ft 460 kts 258°
2026-05-05 06:49 40.83510 -15.91617 32213 ft 460 kts 258°
2026-05-05 06:49 40.82001 -15.99779 32216 ft 460 kts 258°
2026-05-05 06:50 40.80477 -16.07986 32220 ft 460 kts 258°
2026-05-05 06:50 40.78963 -16.16109 32215 ft 460 kts 258°
2026-05-05 06:51 40.77436 -16.24265 32219 ft 460 kts 258°
2026-05-05 06:51 40.75894 -16.32465 32213 ft 460 kts 258°
2026-05-05 06:52 40.74359 -16.40594 32214 ft 460 kts 258°
2026-05-05 06:52 40.72816 -16.48731 32209 ft 459 kts 258°
2026-05-05 06:53 40.71261 -16.56900 32212 ft 459 kts 258°
2026-05-05 06:53 40.69714 -16.64986 32208 ft 459 kts 258°
2026-05-05 06:54 40.68148 -16.73144 32216 ft 460 kts 257°
2026-05-05 06:54 40.66577 -16.81293 32217 ft 459 kts 257°
2026-05-05 06:55 40.65011 -16.89385 32215 ft 459 kts 257°
2026-05-05 06:55 40.63429 -16.97524 32219 ft 459 kts 257°
2026-05-05 06:56 40.61849 -17.05621 32222 ft 460 kts 257°
2026-05-05 06:56 40.60262 -17.13717 32238 ft 460 kts 257°
2026-05-05 06:57 40.58667 -17.21824 32240 ft 460 kts 257°
2026-05-05 06:57 40.57056 -17.29981 32244 ft 460 kts 257°
2026-05-05 06:58 40.55455 -17.38056 32245 ft 460 kts 257°
2026-05-05 06:58 40.53832 -17.46206 32252 ft 460 kts 257°
2026-05-05 06:59 40.52221 -17.54264 32246 ft 460 kts 257°
2026-05-05 06:59 40.50589 -17.62391 32242 ft 460 kts 257°
2026-05-05 07:00 40.48957 -17.70493 32246 ft 461 kts 256°
2026-05-05 07:00 40.47317 -17.78601 32245 ft 461 kts 256°
2026-05-05 07:01 40.45671 -17.86705 32244 ft 461 kts 256°
2026-05-05 07:01 40.44013 -17.94838 32248 ft 462 kts 256°
2026-05-05 07:02 40.42353 -18.02942 32247 ft 462 kts 256°
2026-05-05 07:02 40.40683 -18.11071 32250 ft 462 kts 256°
2026-05-05 07:03 40.39015 -18.19154 32249 ft 462 kts 256°
2026-05-05 07:03 40.37337 -18.27258 32248 ft 462 kts 256°
2026-05-05 07:04 40.35645 -18.35398 32252 ft 463 kts 256°
2026-05-05 07:04 40.33960 -18.43472 32254 ft 464 kts 256°
2026-05-05 07:05 40.32258 -18.51592 32256 ft 463 kts 256°
2026-05-05 07:05 40.30547 -18.59726 32260 ft 464 kts 256°
2026-05-05 07:06 40.28833 -18.67844 32271 ft 464 kts 256°
2026-05-05 07:06 40.27109 -18.75981 32268 ft 464 kts 256°
2026-05-05 07:07 40.25380 -18.84107 32272 ft 465 kts 256°
2026-05-05 07:07 40.23644 -18.92241 32281 ft 466 kts 256°
2026-05-05 07:08 40.21904 -19.00353 32281 ft 465 kts 256°
2026-05-05 07:08 40.20156 -19.08478 32282 ft 466 kts 256°
2026-05-05 07:09 40.18406 -19.16579 32282 ft 465 kts 256°
2026-05-05 07:09 40.16650 -19.24681 32281 ft 466 kts 256°
2026-05-05 07:10 40.14881 -19.32808 32281 ft 466 kts 256°
2026-05-05 07:10 40.13103 -19.40953 32281 ft 467 kts 256°
2026-05-05 07:11 40.11319 -19.49089 32280 ft 466 kts 256°
2026-05-05 07:11 40.09533 -19.57208 32281 ft 467 kts 256°
2026-05-05 07:12 40.07741 -19.65320 32280 ft 467 kts 255°
2026-05-05 07:12 40.05950 -19.73401 32280 ft 468 kts 255°
2026-05-05 07:13 40.04140 -19.81532 32280 ft 468 kts 255°
2026-05-05 07:13 40.02320 -19.89685 32279 ft 469 kts 255°
2026-05-05 07:14 40.00495 -19.97828 32281 ft 470 kts 255°
2026-05-05 07:14 39.98938 -20.06064 32283 ft 468 kts 261°
2026-05-05 07:15 39.97735 -20.14334 32285 ft 467 kts 261°
2026-05-05 07:15 39.96497 -20.22613 32284 ft 467 kts 261°
2026-05-05 07:16 39.95231 -20.30921 32289 ft 467 kts 261°
2026-05-05 07:16 39.93963 -20.39142 32287 ft 468 kts 261°
2026-05-05 07:17 39.92671 -20.47442 32292 ft 468 kts 261°
2026-05-05 07:17 39.91369 -20.55752 32287 ft 468 kts 261°
2026-05-05 07:18 39.90064 -20.64025 32286 ft 469 kts 261°
2026-05-05 07:18 39.88753 -20.72293 32291 ft 470 kts 261°
2026-05-05 07:19 39.87434 -20.80572 32292 ft 469 kts 261°
2026-05-05 07:19 39.86102 -20.88893 32287 ft 469 kts 261°
2026-05-05 07:20 39.84769 -20.97175 32287 ft 470 kts 261°
2026-05-05 07:20 39.83431 -21.05445 32293 ft 470 kts 261°
2026-05-05 07:21 39.82078 -21.13769 32298 ft 470 kts 261°
2026-05-05 07:21 39.80732 -21.22016 32293 ft 471 kts 261°
2026-05-05 07:22 39.79371 -21.30316 32294 ft 471 kts 261°
2026-05-05 07:22 39.77997 -21.38646 32290 ft 472 kts 262°
2026-05-05 07:23 39.76623 -21.46945 32284 ft 471 kts 261°
2026-05-05 07:23 39.75248 -21.55209 32287 ft 472 kts 262°
2026-05-05 07:24 39.73859 -21.63519 32288 ft 473 kts 262°
2026-05-05 07:24 39.72462 -21.71836 32292 ft 474 kts 261°
2026-05-05 07:25 39.71059 -21.80154 32293 ft 474 kts 261°
2026-05-05 07:25 39.69640 -21.88521 32293 ft 474 kts 261°
2026-05-05 07:26 39.68219 -21.96867 32293 ft 474 kts 261°
2026-05-05 07:26 39.66803 -22.05142 32287 ft 475 kts 262°
2026-05-05 07:27 39.65364 -22.13517 32282 ft 474 kts 261°
2026-05-05 07:27 39.63931 -22.21818 32283 ft 475 kts 262°
2026-05-05 07:28 39.62482 -22.30169 32287 ft 475 kts 262°
2026-05-05 07:28 39.61027 -22.38522 32290 ft 475 kts 261°
2026-05-05 07:29 39.59574 -22.46825 32297 ft 477 kts 262°
2026-05-05 07:29 39.58099 -22.55213 32297 ft 476 kts 262°
2026-05-05 07:30 39.56627 -22.63550 32297 ft 476 kts 262°
2026-05-05 07:30 39.54413 -22.76015 32303 ft 477 kts 261°
2026-05-05 07:31 39.52921 -22.84370 32297 ft 477 kts 261°
2026-05-05 07:31 39.51421 -22.92733 32301 ft 477 kts 261°
2026-05-05 07:32 39.49916 -23.01088 32301 ft 478 kts 261°
2026-05-05 07:32 39.48407 -23.09423 32302 ft 479 kts 261°
2026-05-05 07:33 39.46890 -23.17774 32297 ft 478 kts 261°
2026-05-05 07:33 39.45366 -23.26124 32304 ft 480 kts 262°
2026-05-05 07:34 39.43829 -23.34505 32301 ft 480 kts 262°
2026-05-05 07:34 39.42294 -23.42844 32302 ft 480 kts 262°
2026-05-05 07:35 39.40736 -23.51267 32302 ft 481 kts 262°
2026-05-05 07:35 39.39189 -23.59594 32306 ft 482 kts 262°
2026-05-05 07:36 39.37619 -23.68013 32306 ft 481 kts 261°
2026-05-05 07:36 39.36043 -23.76426 32308 ft 484 kts 261°
2026-05-05 07:37 39.34459 -23.84843 32300 ft 483 kts 262°
2026-05-05 07:37 39.32870 -23.93252 32303 ft 485 kts 262°
2026-05-05 07:38 39.31268 -24.01696 32305 ft 484 kts 262°
2026-05-05 07:38 39.29674 -24.10063 32311 ft 486 kts 262°
2026-05-05 07:39 39.28060 -24.18494 32314 ft 485 kts 262°
2026-05-05 07:39 39.26429 -24.26986 32314 ft 488 kts 262°
2026-05-05 07:40 39.24794 -24.35449 32316 ft 485 kts 262°
2026-05-05 07:40 39.23161 -24.43880 32317 ft 488 kts 262°
2026-05-05 07:41 39.21518 -24.52325 32316 ft 489 kts 262°
2026-05-05 07:41 39.19862 -24.60794 32320 ft 489 kts 262°
2026-05-05 07:42 39.18193 -24.69305 32321 ft 491 kts 262°
2026-05-05 07:42 39.16522 -24.77779 32321 ft 490 kts 262°
2026-05-05 07:43 39.14842 -24.86268 32327 ft 490 kts 262°
2026-05-05 07:43 39.13157 -24.94749 32324 ft 492 kts 262°
2026-05-05 07:44 39.11456 -25.03272 32319 ft 491 kts 262°
2026-05-05 07:44 39.09750 -25.11793 32319 ft 495 kts 262°
2026-05-05 07:45 39.08028 -25.20346 32322 ft 494 kts 262°
2026-05-05 07:45 39.06313 -25.28835 32336 ft 493 kts 262°
2026-05-05 07:46 39.04573 -25.37420 32322 ft 494 kts 263°
2026-05-05 07:46 39.02844 -25.45907 32335 ft 494 kts 263°
2026-05-05 07:47 39.01098 -25.54447 32338 ft 497 kts 263°
2026-05-05 07:47 38.99349 -25.62962 32349 ft 495 kts 263°
2026-05-05 07:48 38.97590 -25.71501 32343 ft 497 kts 262°
2026-05-05 07:48 38.95826 -25.80015 32347 ft 496 kts 262°
2026-05-05 07:49 38.94052 -25.88551 32339 ft 495 kts 263°
2026-05-05 07:49 38.92270 -25.97093 32342 ft 497 kts 262°
2026-05-05 07:50 38.90485 -26.05615 32354 ft 497 kts 263°
2026-05-05 07:50 38.88692 -26.14140 32336 ft 497 kts 263°
2026-05-05 07:51 38.86879 -26.22734 32334 ft 500 kts 263°
2026-05-05 07:51 38.85062 -26.31298 32326 ft 498 kts 263°
2026-05-05 07:52 38.83243 -26.39844 32330 ft 498 kts 263°
2026-05-05 07:52 38.81413 -26.48411 32331 ft 500 kts 263°
2026-05-05 07:53 38.79579 -26.56954 32335 ft 496 kts 263°
2026-05-05 07:53 38.77743 -26.65483 32340 ft 498 kts 262°
2026-05-05 07:54 38.75894 -26.74039 32338 ft 502 kts 263°
2026-05-05 07:54 38.74040 -26.82582 32342 ft 501 kts 263°
2026-05-05 07:55 38.72163 -26.91196 32345 ft 503 kts 262°
2026-05-05 07:55 38.70288 -26.99766 32344 ft 499 kts 263°
2026-05-05 07:56 38.68416 -27.08293 32353 ft 502 kts 263°
2026-05-05 07:56 38.66523 -27.16881 32346 ft 499 kts 263°
2026-05-05 07:57 38.64645 -27.25372 32341 ft 502 kts 263°
2026-05-05 07:57 38.62751 -27.33899 32342 ft 500 kts 263°
2026-05-05 07:58 38.60849 -27.42430 32361 ft 501 kts 263°
2026-05-05 07:58 38.58945 -27.50943 32356 ft 501 kts 263°
2026-05-05 07:59 38.57027 -27.59479 32354 ft 501 kts 263°
2026-05-05 07:59 38.55105 -27.67999 32362 ft 498 kts 262°
2026-05-05 08:00 38.53179 -27.76516 32365 ft 501 kts 262°
2026-05-05 08:00 38.51242 -27.85038 32365 ft 499 kts 262°
2026-05-05 08:01 38.49299 -27.93568 32369 ft 503 kts 262°
2026-05-05 08:01 38.47360 -28.02031 32370 ft 499 kts 262°
2026-05-05 08:02 38.45408 -28.10537 32374 ft 501 kts 262°
2026-05-05 08:02 38.43441 -28.19068 32366 ft 501 kts 262°
2026-05-05 08:03 38.41481 -28.27534 32361 ft 500 kts 262°
2026-05-05 08:03 38.39514 -28.36004 32369 ft 500 kts 262°
2026-05-05 08:04 38.37534 -28.44499 32363 ft 499 kts 262°
2026-05-05 08:04 38.35547 -28.52999 32353 ft 501 kts 262°
2026-05-05 08:05 38.33577 -28.61381 32359 ft 499 kts 262°
2026-05-05 08:05 38.31585 -28.69838 32362 ft 497 kts 261°
2026-05-05 08:06 38.29597 -28.78246 32361 ft 500 kts 261°
2026-05-05 08:06 38.27589 -28.86703 32358 ft 495 kts 261°
2026-05-05 08:07 38.25593 -28.95090 32365 ft 499 kts 261°
2026-05-05 08:07 38.23562 -29.03589 32374 ft 500 kts 262°
2026-05-05 08:08 38.21558 -29.11937 32375 ft 497 kts 261°
2026-05-05 08:08 38.19544 -29.20301 32375 ft 496 kts 261°
2026-05-05 08:09 38.17527 -29.28660 32383 ft 496 kts 261°
2026-05-05 08:09 38.15503 -29.37011 32381 ft 498 kts 261°
2026-05-05 08:10 38.13470 -29.45362 32371 ft 494 kts 261°
2026-05-05 08:10 38.11447 -29.53647 32372 ft 491 kts 261°
2026-05-05 08:11 38.09413 -29.61961 32376 ft 493 kts 261°
2026-05-05 08:11 38.07376 -29.70252 32373 ft 494 kts 260°
2026-05-05 08:12 38.05355 -29.78439 32375 ft 491 kts 261°
2026-05-05 08:12 38.03301 -29.86748 32371 ft 493 kts 261°
2026-05-05 08:13 38.01257 -29.94975 32371 ft 491 kts 261°
2026-05-05 08:13 37.99212 -30.03213 32372 ft 490 kts 261°
2026-05-05 08:14 37.97172 -30.11428 32376 ft 489 kts 261°
2026-05-05 08:14 37.95134 -30.19615 32371 ft 491 kts 260°
2026-05-05 08:15 37.93080 -30.27832 32377 ft 492 kts 260°
2026-05-05 08:15 37.91022 -30.36029 32379 ft 487 kts 261°
2026-05-05 08:16 37.88970 -30.44196 32364 ft 489 kts 261°
2026-05-05 08:16 37.86923 -30.52306 32369 ft 486 kts 260°
2026-05-05 08:17 37.84852 -30.60489 32368 ft 489 kts 261°
2026-05-05 08:17 37.82794 -30.68579 32374 ft 486 kts 260°
2026-05-05 08:18 37.80712 -30.76759 32371 ft 488 kts 260°
2026-05-05 08:18 37.78641 -30.84854 32379 ft 489 kts 259°
2026-05-05 08:19 37.76557 -30.92979 32375 ft 491 kts 260°
2026-05-05 08:19 37.74441 -31.01203 32375 ft 490 kts 260°
2026-05-05 08:20 37.72353 -31.09275 32373 ft 484 kts 259°
2026-05-05 08:20 37.70263 -31.17352 32370 ft 487 kts 260°
2026-05-05 08:21 37.68150 -31.25486 32375 ft 488 kts 260°
2026-05-05 08:21 37.66043 -31.33556 32369 ft 483 kts 259°
2026-05-05 08:22 37.63947 -31.41580 32365 ft 485 kts 259°
2026-05-05 08:22 37.61828 -31.49662 32369 ft 489 kts 259°
2026-05-05 08:23 37.59690 -31.57778 32367 ft 488 kts 260°
2026-05-05 08:23 37.57553 -31.65873 32368 ft 486 kts 259°
2026-05-05 08:24 37.55421 -31.73923 32363 ft 487 kts 259°
2026-05-05 08:24 37.53288 -31.81952 32365 ft 487 kts 259°
2026-05-05 08:25 37.51133 -31.90039 32362 ft 487 kts 259°
2026-05-05 08:25 37.48982 -31.98082 32365 ft 486 kts 258°
2026-05-05 08:26 37.46835 -32.06082 32366 ft 485 kts 259°
2026-05-05 08:26 37.44678 -32.14108 32373 ft 490 kts 259°
2026-05-05 08:27 37.42499 -32.22180 32370 ft 486 kts 259°
2026-05-05 08:27 37.40322 -32.30218 32367 ft 483 kts 259°
2026-05-05 08:28 37.38153 -32.38216 32374 ft 490 kts 258°
2026-05-05 08:28 37.35981 -32.46184 32378 ft 485 kts 259°
2026-05-05 08:29 37.33786 -32.54225 32374 ft 488 kts 259°
2026-05-05 08:30 37.30495 -32.66223 32370 ft 487 kts 258°
2026-05-05 08:30 37.28308 -32.74166 32372 ft 484 kts 258°
2026-05-05 08:31 37.26099 -32.82173 32378 ft 488 kts 258°
2026-05-05 08:31 37.23873 -32.90208 32376 ft 486 kts 258°
2026-05-05 08:32 37.21673 -32.98122 32373 ft 482 kts 258°
2026-05-05 08:32 37.19452 -33.06102 32373 ft 487 kts 258°
2026-05-05 08:33 37.17229 -33.14051 32376 ft 486 kts 258°
2026-05-05 08:33 37.15002 -33.21994 32371 ft 481 kts 258°
2026-05-05 08:34 37.12770 -33.29940 32368 ft 484 kts 258°
2026-05-05 08:34 37.10546 -33.37828 32366 ft 484 kts 258°
2026-05-05 08:35 37.08293 -33.45795 32354 ft 486 kts 258°
2026-05-05 08:35 37.06038 -33.53748 32359 ft 486 kts 258°
2026-05-05 08:36 37.03798 -33.61621 32369 ft 484 kts 258°
2026-05-05 08:36 37.01531 -33.69570 32354 ft 485 kts 257°
2026-05-05 08:37 36.99263 -33.77496 32360 ft 487 kts 257°
2026-05-05 08:37 36.96983 -33.85446 32355 ft 488 kts 257°
2026-05-05 08:38 36.94695 -33.93394 32358 ft 487 kts 257°
2026-05-05 08:38 36.92407 -34.01320 32365 ft 487 kts 257°
2026-05-05 08:39 36.90110 -34.09260 32368 ft 489 kts 257°
2026-05-05 08:39 36.87816 -34.17152 32352 ft 483 kts 257°
2026-05-05 08:40 36.85520 -34.25044 32344 ft 483 kts 257°
2026-05-05 08:40 36.83212 -34.32955 32348 ft 488 kts 257°
2026-05-05 08:41 36.80905 -34.40830 32346 ft 485 kts 257°
2026-05-05 08:41 36.78599 -34.48683 32340 ft 484 kts 257°
2026-05-05 08:42 36.76283 -34.56547 32347 ft 484 kts 257°
2026-05-05 08:42 36.73976 -34.64359 32341 ft 482 kts 257°
2026-05-05 08:43 36.71652 -34.72208 32344 ft 484 kts 256°
2026-05-05 08:43 36.69331 -34.80022 32343 ft 484 kts 256°
2026-05-05 08:44 36.67007 -34.87824 32341 ft 480 kts 256°
2026-05-05 08:44 36.64680 -34.95617 32341 ft 481 kts 256°
2026-05-05 08:45 36.62343 -35.03424 32341 ft 482 kts 256°
2026-05-05 08:45 36.60018 -35.11165 32351 ft 481 kts 256°
2026-05-05 08:46 36.57682 -35.18918 32352 ft 477 kts 257°
2026-05-05 08:46 36.55364 -35.26594 32359 ft 477 kts 256°
2026-05-05 08:47 36.53040 -35.34268 32352 ft 471 kts 256°
2026-05-05 08:47 36.50724 -35.41901 32348 ft 475 kts 256°
2026-05-05 08:48 36.48403 -35.49523 32352 ft 472 kts 256°
2026-05-05 08:48 36.46072 -35.57161 32351 ft 472 kts 256°
2026-05-05 08:49 36.43757 -35.64722 32348 ft 471 kts 256°
2026-05-05 08:49 36.41433 -35.72297 32344 ft 470 kts 255°
2026-05-05 08:50 36.39111 -35.79847 32338 ft 471 kts 255°
2026-05-05 08:50 36.36789 -35.87367 32335 ft 466 kts 255°
2026-05-05 08:51 36.34473 -35.94859 32332 ft 466 kts 255°
2026-05-05 08:51 36.32143 -36.02373 32329 ft 468 kts 255°
2026-05-05 08:52 36.29818 -36.09848 32324 ft 462 kts 255°
2026-05-05 08:52 36.27503 -36.17278 32331 ft 468 kts 255°
2026-05-05 08:53 36.25156 -36.24787 32329 ft 468 kts 255°
2026-05-05 08:53 36.22804 -36.32296 32328 ft 471 kts 255°
2026-05-05 08:54 36.20431 -36.39846 32337 ft 471 kts 255°
2026-05-05 08:54 36.18063 -36.47363 32337 ft 469 kts 255°
2026-05-05 08:55 36.15682 -36.54906 32347 ft 473 kts 255°
2026-05-05 08:55 36.13295 -36.62443 32343 ft 472 kts 255°
2026-05-05 08:56 36.10898 -36.69994 32348 ft 471 kts 254°
2026-05-05 08:56 36.08484 -36.77581 32347 ft 475 kts 254°
2026-05-05 08:57 36.06073 -36.85135 32343 ft 477 kts 254°
2026-05-05 08:57 36.03643 -36.92734 32352 ft 477 kts 254°
2026-05-05 08:58 36.01203 -37.00339 32347 ft 479 kts 254°
2026-05-05 08:58 35.98745 -37.07981 32347 ft 477 kts 254°
2026-05-05 08:59 35.96315 -37.15518 32348 ft 476 kts 254°
2026-05-05 08:59 35.93861 -37.23111 32341 ft 478 kts 254°
2026-05-05 09:00 35.91409 -37.30676 32342 ft 478 kts 254°
2026-05-05 09:00 35.88959 -37.38215 32329 ft 475 kts 254°
2026-05-05 09:01 35.86491 -37.45795 32334 ft 475 kts 253°
2026-05-05 09:01 35.84031 -37.53330 32328 ft 477 kts 254°
2026-05-05 09:02 35.81556 -37.60888 32337 ft 476 kts 254°
2026-05-05 09:02 35.79098 -37.68375 32339 ft 476 kts 253°
2026-05-05 09:03 35.76623 -37.75898 32339 ft 474 kts 253°
2026-05-05 09:03 35.74139 -37.83429 32335 ft 473 kts 253°
2026-05-05 09:04 35.71678 -37.90868 32337 ft 471 kts 253°
2026-05-05 09:04 35.69197 -37.98357 32336 ft 474 kts 253°
2026-05-05 09:05 35.66725 -38.05792 32332 ft 473 kts 253°
2026-05-05 09:05 35.64236 -38.13263 32331 ft 472 kts 253°
2026-05-05 09:06 35.61755 -38.20691 32330 ft 473 kts 253°
2026-05-05 09:06 35.59268 -38.28119 32324 ft 471 kts 253°
2026-05-05 09:07 35.56764 -38.35585 32326 ft 475 kts 253°
2026-05-05 09:07 35.54262 -38.43018 32318 ft 471 kts 253°
2026-05-05 09:08 35.51749 -38.50469 32319 ft 472 kts 252°
2026-05-05 09:08 35.49242 -38.57885 32320 ft 473 kts 252°
2026-05-05 09:09 35.46729 -38.65299 32317 ft 473 kts 252°
2026-05-05 09:09 35.44202 -38.72738 32318 ft 472 kts 252°
2026-05-05 09:10 35.41677 -38.80151 32314 ft 472 kts 252°
2026-05-05 09:10 35.39154 -38.87542 32315 ft 474 kts 252°
2026-05-05 09:11 35.36617 -38.94954 32313 ft 472 kts 252°
2026-05-05 09:11 35.34085 -39.02334 32309 ft 471 kts 252°
2026-05-05 09:12 35.31559 -39.09680 32311 ft 472 kts 251°
2026-05-05 09:12 35.28997 -39.17114 32311 ft 473 kts 251°
2026-05-05 09:13 35.26457 -39.24464 32302 ft 471 kts 251°
2026-05-05 09:13 35.23901 -39.31846 32307 ft 472 kts 251°
2026-05-05 09:14 35.21348 -39.39199 32305 ft 471 kts 251°
2026-05-05 09:14 35.18796 -39.46531 32307 ft 469 kts 251°
2026-05-05 09:15 35.16230 -39.53887 32302 ft 469 kts 251°
2026-05-05 09:15 35.13667 -39.61220 32301 ft 472 kts 251°
2026-05-05 09:16 35.11104 -39.68531 32311 ft 469 kts 251°
2026-05-05 09:16 35.08521 -39.75888 32311 ft 472 kts 251°
2026-05-05 09:17 35.05949 -39.83189 32308 ft 471 kts 250°
2026-05-05 09:17 35.03359 -39.90529 32299 ft 471 kts 250°
2026-05-05 09:18 35.00772 -39.97841 32282 ft 468 kts 250°
2026-05-05 09:18 34.98487 -40.05230 32297 ft 468 kts 257°
2026-05-05 09:19 34.96680 -40.12804 32284 ft 464 kts 257°
2026-05-05 09:19 34.94847 -40.20306 32287 ft 465 kts 257°
2026-05-05 09:20 34.92971 -40.27856 32286 ft 465 kts 257°
2026-05-05 09:20 34.91087 -40.35366 32291 ft 465 kts 257°
2026-05-05 09:21 34.89188 -40.42877 32280 ft 466 kts 257°
2026-05-05 09:21 34.87273 -40.50422 32283 ft 467 kts 257°
2026-05-05 09:22 34.85357 -40.57935 32290 ft 467 kts 257°
2026-05-05 09:22 34.83429 -40.65467 32291 ft 467 kts 256°
2026-05-05 09:23 34.81502 -40.72976 32293 ft 466 kts 256°
2026-05-05 09:23 34.79569 -40.80485 32294 ft 467 kts 256°
2026-05-05 09:24 34.77622 -40.88023 32293 ft 466 kts 256°
2026-05-05 09:24 34.75691 -40.95483 32293 ft 467 kts 256°
2026-05-05 09:25 34.73744 -41.02978 32293 ft 467 kts 256°
2026-05-05 09:25 34.71788 -41.10486 32289 ft 466 kts 256°
2026-05-05 09:26 34.69830 -41.17985 32294 ft 467 kts 256°
2026-05-05 09:26 34.67874 -41.25451 32293 ft 467 kts 256°
2026-05-05 09:27 34.65907 -41.32943 32286 ft 468 kts 257°
2026-05-05 09:27 34.63932 -41.40440 32287 ft 465 kts 256°
2026-05-05 09:28 34.61958 -41.47916 32291 ft 467 kts 256°
2026-05-05 09:28 34.59978 -41.55390 32289 ft 467 kts 257°
2026-05-05 09:29 34.57995 -41.62859 32287 ft 466 kts 256°
2026-05-05 09:29 34.56004 -41.70332 32294 ft 467 kts 256°
2026-05-05 09:30 34.54012 -41.77791 32292 ft 468 kts 256°
2026-05-05 09:30 34.52005 -41.85286 32292 ft 467 kts 256°
2026-05-05 09:31 34.50002 -41.92742 32292 ft 466 kts 256°
2026-05-05 09:31 34.48001 -42.00172 32291 ft 465 kts 256°
2026-05-05 09:32 34.45995 -42.07605 32293 ft 467 kts 256°
2026-05-05 09:32 34.43990 -42.15011 32291 ft 466 kts 256°
2026-05-05 09:33 34.41966 -42.22463 32285 ft 464 kts 256°
2026-05-05 09:33 34.39945 -42.29888 32283 ft 465 kts 256°
2026-05-05 09:34 34.37921 -42.37304 32284 ft 465 kts 256°
2026-05-05 09:34 34.35902 -42.44678 32283 ft 464 kts 256°
2026-05-05 09:35 34.33867 -42.52095 32282 ft 465 kts 256°
2026-05-05 09:35 34.30804 -42.63222 32280 ft 465 kts 256°
2026-05-05 09:36 34.28764 -42.70603 32286 ft 464 kts 255°
2026-05-05 09:36 34.26717 -42.77993 32285 ft 463 kts 256°
2026-05-05 09:37 34.24668 -42.85373 32285 ft 466 kts 255°
2026-05-05 09:37 34.22616 -42.92741 32284 ft 464 kts 255°
2026-05-05 09:38 34.20561 -43.00102 32284 ft 464 kts 255°
2026-05-05 09:38 34.18495 -43.07482 32280 ft 464 kts 255°
2026-05-05 09:39 34.16437 -43.14814 32277 ft 466 kts 255°
2026-05-05 09:39 34.14365 -43.22177 32267 ft 466 kts 255°
2026-05-05 09:40 34.12290 -43.29531 32268 ft 463 kts 255°
2026-05-05 09:40 34.10204 -43.36905 32266 ft 463 kts 255°
2026-05-05 09:41 34.08131 -43.44215 32271 ft 463 kts 255°
2026-05-05 09:41 34.06043 -43.51557 32278 ft 462 kts 255°
2026-05-05 09:42 34.03963 -43.58855 32279 ft 462 kts 255°
2026-05-05 09:42 34.01881 -43.66139 32283 ft 462 kts 255°
2026-05-05 09:43 33.99797 -43.73411 32286 ft 460 kts 255°
2026-05-05 09:43 33.97706 -43.80691 32289 ft 462 kts 255°
2026-05-05 09:44 33.95603 -43.87993 32283 ft 462 kts 255°
2026-05-05 09:44 33.93504 -43.95262 32284 ft 460 kts 254°
2026-05-05 09:45 33.91396 -44.02548 32284 ft 462 kts 254°
2026-05-05 09:45 33.89289 -44.09808 32280 ft 462 kts 254°
2026-05-05 09:46 33.87168 -44.17096 32279 ft 461 kts 254°
2026-05-05 09:46 33.85062 -44.24318 32277 ft 461 kts 254°
2026-05-05 09:47 33.82939 -44.31578 32276 ft 460 kts 254°
2026-05-05 09:47 33.80826 -44.38788 32277 ft 460 kts 254°
2026-05-05 09:48 33.78703 -44.46011 32276 ft 459 kts 254°
2026-05-05 09:48 33.76583 -44.53211 32270 ft 457 kts 254°
2026-05-05 09:49 33.74458 -44.60405 32270 ft 458 kts 254°
2026-05-05 09:49 33.72438 -44.67233 32275 ft 458 kts 253°
2026-05-05 09:50 33.70308 -44.74408 32277 ft 456 kts 253°
2026-05-05 09:50 33.68170 -44.81599 32275 ft 457 kts 253°
2026-05-05 09:51 33.66038 -44.88749 32276 ft 458 kts 253°
2026-05-05 09:51 33.63891 -44.95934 32274 ft 459 kts 253°
2026-05-05 09:52 33.61732 -45.03139 32274 ft 459 kts 253°
2026-05-05 09:52 33.59588 -45.10276 32270 ft 456 kts 253°
2026-05-05 09:53 33.57438 -45.17418 32264 ft 458 kts 253°
2026-05-05 09:53 33.55278 -45.24576 32261 ft 456 kts 253°
2026-05-05 09:54 33.53129 -45.31679 32258 ft 457 kts 253°
2026-05-05 09:54 33.50975 -45.38784 32258 ft 456 kts 253°
2026-05-05 09:55 33.48811 -45.45903 32257 ft 455 kts 253°
2026-05-05 09:55 33.46648 -45.53000 32256 ft 456 kts 253°
2026-05-05 09:56 33.44473 -45.60121 32254 ft 454 kts 253°
2026-05-05 09:56 33.42303 -45.67211 32264 ft 456 kts 252°
2026-05-05 09:57 33.40119 -45.74329 32263 ft 456 kts 252°
2026-05-05 09:57 33.37936 -45.81426 32262 ft 454 kts 252°
2026-05-05 09:58 33.35751 -45.88516 32259 ft 456 kts 252°
2026-05-05 09:58 33.33563 -45.95593 32264 ft 456 kts 252°
2026-05-05 09:59 33.31368 -46.02682 32261 ft 456 kts 252°
2026-05-05 09:59 33.29182 -46.09720 32260 ft 455 kts 252°
2026-05-05 10:00 33.26979 -46.16801 32261 ft 456 kts 252°
2026-05-05 10:00 33.24778 -46.23859 32257 ft 455 kts 252°
2026-05-05 10:01 33.22568 -46.30927 32254 ft 456 kts 252°
2026-05-05 10:01 33.20351 -46.37999 32255 ft 454 kts 252°
2026-05-05 10:02 33.18150 -46.45007 32256 ft 454 kts 252°
2026-05-05 10:02 33.15931 -46.52059 32251 ft 456 kts 252°
2026-05-05 10:03 33.13707 -46.59107 32252 ft 454 kts 252°
2026-05-05 10:03 33.11492 -46.66110 32255 ft 454 kts 251°
2026-05-05 10:04 33.09251 -46.73181 32266 ft 454 kts 251°
2026-05-05 10:04 33.07032 -46.80167 32265 ft 454 kts 251°
2026-05-05 10:05 33.04788 -46.87214 32266 ft 454 kts 251°
2026-05-05 10:05 33.02563 -46.94187 32262 ft 454 kts 251°
2026-05-05 10:06 33.00326 -47.01179 32259 ft 453 kts 251°
2026-05-05 10:06 32.98080 -47.08186 32261 ft 454 kts 251°
2026-05-05 10:07 32.95841 -47.15153 32261 ft 453 kts 251°
2026-05-05 10:07 32.93589 -47.22147 32260 ft 453 kts 251°
2026-05-05 10:08 32.91334 -47.29136 32259 ft 454 kts 251°
2026-05-05 10:08 32.89079 -47.36108 32256 ft 453 kts 251°
2026-05-05 10:09 32.86821 -47.43074 32257 ft 452 kts 251°
2026-05-05 10:09 32.84562 -47.50025 32255 ft 450 kts 251°
2026-05-05 10:10 32.82307 -47.56950 32252 ft 451 kts 251°
2026-05-05 10:10 32.80046 -47.63878 32256 ft 451 kts 251°
2026-05-05 10:11 32.77771 -47.70835 32259 ft 452 kts 250°
2026-05-05 10:11 32.75514 -47.77722 32259 ft 452 kts 250°
2026-05-05 10:12 32.73233 -47.84665 32259 ft 452 kts 250°
2026-05-05 10:12 32.70946 -47.91613 32259 ft 452 kts 250°
2026-05-05 10:13 32.68668 -47.98519 32259 ft 451 kts 250°
2026-05-05 10:13 32.66400 -48.05378 32253 ft 451 kts 250°
2026-05-05 10:14 32.64115 -48.12272 32253 ft 449 kts 250°
2026-05-05 10:14 32.61833 -48.19146 32251 ft 450 kts 250°
2026-05-05 10:15 32.59550 -48.26006 32245 ft 449 kts 250°
2026-05-05 10:15 32.57262 -48.32868 32239 ft 448 kts 250°
2026-05-05 10:16 32.54959 -48.39759 32238 ft 449 kts 250°
2026-05-05 10:16 32.52674 -48.46581 32237 ft 448 kts 250°
2026-05-05 10:17 32.50375 -48.53430 32237 ft 449 kts 250°
2026-05-05 10:17 32.48073 -48.60274 32238 ft 448 kts 250°
2026-05-05 10:18 32.45766 -48.67121 32243 ft 447 kts 249°
2026-05-05 10:18 32.43461 -48.73944 32243 ft 448 kts 250°
2026-05-05 10:19 32.41157 -48.80751 32243 ft 446 kts 250°
2026-05-05 10:19 32.38851 -48.87550 32242 ft 447 kts 250°
2026-05-05 10:20 32.36542 -48.94344 32241 ft 447 kts 250°
2026-05-05 10:20 32.34227 -49.01141 32240 ft 447 kts 250°
2026-05-05 10:21 32.31916 -49.07912 32239 ft 447 kts 250°
2026-05-05 10:21 32.29587 -49.14720 32238 ft 447 kts 250°
2026-05-05 10:22 32.27273 -49.21472 32235 ft 443 kts 250°
2026-05-05 10:22 32.24954 -49.28223 32235 ft 443 kts 250°
2026-05-05 10:23 32.22644 -49.34936 32236 ft 442 kts 249°
2026-05-05 10:23 32.20331 -49.41642 32236 ft 442 kts 250°
2026-05-05 10:24 32.18017 -49.48339 32234 ft 442 kts 250°
2026-05-05 10:24 32.15710 -49.55002 32234 ft 442 kts 249°
2026-05-05 10:25 32.13379 -49.61721 32233 ft 443 kts 249°
2026-05-05 10:25 32.11053 -49.68410 32244 ft 442 kts 249°
2026-05-05 10:26 32.08735 -49.75065 32243 ft 442 kts 249°
2026-05-05 10:26 32.06394 -49.81770 32242 ft 440 kts 249°
2026-05-05 10:27 32.04070 -49.88415 32241 ft 441 kts 249°
2026-05-05 10:27 32.01727 -49.95100 32241 ft 441 kts 249°
2026-05-05 10:28 31.99424 -50.01732 32235 ft 440 kts 252°
2026-05-05 10:28 31.97701 -50.08638 32236 ft 439 kts 255°
2026-05-05 10:29 31.96019 -50.15487 32233 ft 437 kts 255°
2026-05-05 10:29 31.94304 -50.22334 32230 ft 438 kts 254°
2026-05-05 10:30 31.92574 -50.29171 32233 ft 437 kts 254°
2026-05-05 10:30 31.90831 -50.36012 32227 ft 439 kts 254°
2026-05-05 10:31 31.89066 -50.42905 32226 ft 438 kts 254°
2026-05-05 10:31 31.87318 -50.49710 32223 ft 439 kts 254°
2026-05-05 10:32 31.85552 -50.56562 32221 ft 437 kts 254°
2026-05-05 10:32 31.83788 -50.63389 32219 ft 436 kts 254°
2026-05-05 10:33 31.82033 -50.70164 32229 ft 437 kts 253°
2026-05-05 10:33 31.80264 -50.76976 32229 ft 436 kts 253°
2026-05-05 10:34 31.78498 -50.83760 32225 ft 436 kts 253°
2026-05-05 10:34 31.76726 -50.90550 32222 ft 436 kts 254°
2026-05-05 10:35 31.74939 -50.97380 32222 ft 437 kts 253°
2026-05-05 10:35 31.73156 -51.04177 32220 ft 437 kts 254°
2026-05-05 10:36 31.71380 -51.10933 32218 ft 437 kts 253°
2026-05-05 10:36 31.69593 -51.17716 32218 ft 436 kts 254°
2026-05-05 10:37 31.67803 -51.24493 32216 ft 435 kts 253°
2026-05-05 10:37 31.66003 -51.31289 32216 ft 436 kts 253°
2026-05-05 10:38 31.64208 -51.38052 32217 ft 436 kts 253°
2026-05-05 10:38 31.62417 -51.44787 32215 ft 435 kts 253°
2026-05-05 10:39 31.60609 -51.51566 32214 ft 435 kts 253°
2026-05-05 10:39 31.58802 -51.58325 32211 ft 434 kts 253°
2026-05-05 10:40 31.57002 -51.65043 32212 ft 435 kts 253°
2026-05-05 10:40 31.55194 -51.71778 32222 ft 435 kts 253°
2026-05-05 10:41 31.53381 -51.78510 32222 ft 434 kts 253°
2026-05-05 10:41 31.51562 -51.85254 32221 ft 433 kts 253°
2026-05-05 10:42 31.48833 -51.95338 32221 ft 436 kts 253°
2026-05-05 10:43 31.47006 -52.02070 32219 ft 433 kts 253°
2026-05-05 10:43 31.45181 -52.08780 32218 ft 436 kts 253°
2026-05-05 10:44 31.43337 -52.15542 32217 ft 435 kts 253°
2026-05-05 10:44 31.41496 -52.22278 32215 ft 434 kts 253°
2026-05-05 10:45 31.39662 -52.28977 32216 ft 435 kts 252°
2026-05-05 10:45 31.37817 -52.35695 32213 ft 434 kts 253°
2026-05-05 10:46 31.35970 -52.42408 32210 ft 433 kts 252°
2026-05-05 10:46 31.34123 -52.49105 32212 ft 434 kts 253°
2026-05-05 10:47 31.32274 -52.55794 32210 ft 435 kts 253°
2026-05-05 10:47 31.30423 -52.62476 32200 ft 435 kts 252°
2026-05-05 10:48 31.28576 -52.69130 32210 ft 431 kts 252°
2026-05-05 10:48 31.26707 -52.75844 32208 ft 434 kts 252°
2026-05-05 10:49 31.24844 -52.82526 32202 ft 433 kts 252°
2026-05-05 10:49 31.22976 -52.89205 32200 ft 434 kts 252°
2026-05-05 10:50 31.21106 -52.95880 32196 ft 435 kts 252°
2026-05-05 10:50 31.19228 -53.02570 32196 ft 432 kts 252°
2026-05-05 10:51 31.17357 -53.09215 32196 ft 433 kts 252°
2026-05-05 10:51 31.15467 -53.15917 32194 ft 434 kts 251°
2026-05-05 10:52 31.13585 -53.22574 32194 ft 433 kts 252°
2026-05-05 10:52 31.11702 -53.29221 32196 ft 433 kts 252°
2026-05-05 10:53 31.09819 -53.35853 32191 ft 432 kts 252°
2026-05-05 10:53 31.07932 -53.42482 32192 ft 434 kts 252°
2026-05-05 10:54 31.06038 -53.49124 32188 ft 430 kts 251°
2026-05-05 10:54 31.04149 -53.55735 32190 ft 432 kts 252°
2026-05-05 10:55 31.02240 -53.62398 32188 ft 432 kts 252°
2026-05-05 10:55 31.00347 -53.68992 32198 ft 431 kts 251°
2026-05-05 10:56 30.98451 -53.75584 32202 ft 431 kts 251°
2026-05-05 10:56 30.96538 -53.82218 32198 ft 431 kts 251°
2026-05-05 10:57 30.94640 -53.88789 32199 ft 431 kts 251°
2026-05-05 10:57 30.92721 -53.95414 32195 ft 432 kts 251°
2026-05-05 10:58 30.90803 -54.02025 32194 ft 432 kts 251°
2026-05-05 10:58 30.88890 -54.08602 32200 ft 431 kts 251°
2026-05-05 10:59 30.86964 -54.15212 32202 ft 431 kts 251°
2026-05-05 10:59 30.85042 -54.21794 32198 ft 430 kts 251°
2026-05-05 11:00 30.83122 -54.28351 32197 ft 433 kts 251°
2026-05-05 11:00 30.81191 -54.34937 32193 ft 430 kts 251°
2026-05-05 11:01 30.79242 -54.41566 32196 ft 430 kts 251°
2026-05-05 11:01 30.77316 -54.48105 32193 ft 431 kts 251°
2026-05-05 11:02 30.75378 -54.54671 32193 ft 430 kts 251°
2026-05-05 11:02 30.73423 -54.61279 32190 ft 433 kts 251°
2026-05-05 11:03 30.71475 -54.67852 32203 ft 431 kts 250°
2026-05-05 11:03 30.69524 -54.74421 32202 ft 431 kts 250°
2026-05-05 11:04 30.67564 -54.81005 32202 ft 432 kts 250°
2026-05-05 11:04 30.65611 -54.87552 32204 ft 430 kts 250°
2026-05-05 11:05 30.63648 -54.94121 32200 ft 430 kts 250°
2026-05-05 11:05 30.61686 -55.00670 32203 ft 431 kts 250°
2026-05-05 11:06 30.59730 -55.07185 32196 ft 432 kts 250°
2026-05-05 11:06 30.57751 -55.13766 32197 ft 430 kts 250°
2026-05-05 11:07 30.55780 -55.20306 32188 ft 431 kts 250°
2026-05-05 11:07 30.53803 -55.26852 32189 ft 432 kts 250°
2026-05-05 11:08 30.51823 -55.33393 32185 ft 433 kts 250°
2026-05-05 11:08 30.49834 -55.39952 32185 ft 433 kts 250°
2026-05-05 11:09 30.47834 -55.46533 32175 ft 431 kts 250°
2026-05-05 11:09 30.45836 -55.53095 32183 ft 432 kts 250°
2026-05-05 11:10 30.43836 -55.59647 32176 ft 430 kts 250°
2026-05-05 11:10 30.41839 -55.66178 32179 ft 431 kts 250°
2026-05-05 11:11 30.39843 -55.72693 32183 ft 430 kts 250°
2026-05-05 11:11 30.37840 -55.79217 32185 ft 432 kts 250°
2026-05-05 11:12 30.35829 -55.85753 32176 ft 432 kts 249°
2026-05-05 11:12 30.33809 -55.92305 32176 ft 431 kts 250°
2026-05-05 11:13 30.31789 -55.98845 32178 ft 433 kts 249°
2026-05-05 11:13 30.29768 -56.05375 32181 ft 434 kts 249°
2026-05-05 11:14 30.27736 -56.11926 32174 ft 431 kts 250°
2026-05-05 11:14 30.25704 -56.18467 32172 ft 434 kts 249°
2026-05-05 11:15 30.23680 -56.24967 32174 ft 432 kts 249°
2026-05-05 11:15 30.21644 -56.31490 32167 ft 433 kts 250°
2026-05-05 11:16 30.19610 -56.37998 32161 ft 431 kts 250°
2026-05-05 11:16 30.17575 -56.44493 32163 ft 432 kts 249°
2026-05-05 11:17 30.15534 -56.50994 32159 ft 432 kts 249°
2026-05-05 11:17 30.13486 -56.57506 32157 ft 431 kts 249°
2026-05-05 11:18 30.11449 -56.63971 32150 ft 433 kts 249°
2026-05-05 11:18 30.09396 -56.70471 32155 ft 433 kts 249°
2026-05-05 11:19 30.07332 -56.76997 32161 ft 433 kts 249°
2026-05-05 11:19 30.05275 -56.83487 32159 ft 431 kts 249°
2026-05-05 11:20 30.03212 -56.89981 32156 ft 432 kts 249°
2026-05-05 11:20 30.01143 -56.96481 32165 ft 432 kts 249°
2026-05-05 11:21 29.99085 -57.02935 32171 ft 429 kts 249°
2026-05-05 11:21 29.97021 -57.09394 32172 ft 431 kts 249°
2026-05-05 11:22 29.94961 -57.15830 32170 ft 431 kts 249°
2026-05-05 11:22 29.92893 -57.22279 32166 ft 428 kts 249°
2026-05-05 11:23 29.90819 -57.28731 32171 ft 431 kts 249°
2026-05-05 11:23 29.88749 -57.35162 32169 ft 430 kts 249°
2026-05-05 11:24 29.86667 -57.41616 32170 ft 427 kts 249°
2026-05-05 11:24 29.84606 -57.47991 32167 ft 428 kts 249°
2026-05-05 11:25 29.82520 -57.54434 32163 ft 428 kts 249°
2026-05-05 11:25 29.80451 -57.60811 32160 ft 428 kts 249°
2026-05-05 11:26 29.78361 -57.67240 32174 ft 429 kts 248°
2026-05-05 11:26 29.76282 -57.73625 32172 ft 429 kts 249°
2026-05-05 11:27 29.74178 -57.80072 32169 ft 429 kts 249°
2026-05-05 11:27 29.72096 -57.86440 32164 ft 427 kts 249°
2026-05-05 11:28 29.70009 -57.92812 32166 ft 428 kts 249°
2026-05-05 11:28 29.67919 -57.99181 32158 ft 427 kts 248°
2026-05-05 11:29 29.65814 -58.05586 32158 ft 428 kts 249°
2026-05-05 11:29 29.63713 -58.11963 32157 ft 430 kts 248°
2026-05-05 11:30 29.61616 -58.18317 32156 ft 427 kts 248°
2026-05-05 11:30 29.59503 -58.24710 32155 ft 429 kts 248°
2026-05-05 11:31 29.57401 -58.31055 32149 ft 428 kts 248°
2026-05-05 11:31 29.55274 -58.37465 32152 ft 429 kts 249°
2026-05-05 11:32 29.53159 -58.43827 32148 ft 428 kts 248°
2026-05-05 11:32 29.51033 -58.50209 32148 ft 428 kts 249°
2026-05-05 11:33 29.48913 -58.56561 32145 ft 430 kts 248°
2026-05-05 11:33 29.46775 -58.62959 32144 ft 428 kts 248°
2026-05-05 11:34 29.44644 -58.69320 32155 ft 428 kts 248°
2026-05-05 11:34 29.42510 -58.75679 32154 ft 430 kts 248°
2026-05-05 11:35 29.40377 -58.82026 32155 ft 430 kts 248°
2026-05-05 11:35 29.38230 -58.88400 32153 ft 429 kts 248°
2026-05-05 11:36 29.36081 -58.94770 32152 ft 430 kts 248°
2026-05-05 11:36 29.33922 -59.01158 32150 ft 430 kts 248°
2026-05-05 11:37 29.31772 -59.07508 32148 ft 429 kts 248°
2026-05-05 11:37 29.29615 -59.13866 32144 ft 428 kts 248°
2026-05-05 11:38 29.27452 -59.20231 32143 ft 428 kts 248°
2026-05-05 11:38 29.25302 -59.26545 32141 ft 427 kts 248°
2026-05-05 11:39 29.23143 -59.32873 32142 ft 429 kts 248°
2026-05-05 11:39 29.20980 -59.39204 32137 ft 428 kts 248°
2026-05-05 11:40 29.18806 -59.45553 32134 ft 427 kts 248°
2026-05-05 11:40 29.16637 -59.51879 32133 ft 428 kts 248°
2026-05-05 11:41 29.14469 -59.58191 32136 ft 428 kts 248°
2026-05-05 11:41 29.12308 -59.64468 32130 ft 427 kts 248°
2026-05-05 11:42 29.10123 -59.70806 32142 ft 428 kts 247°
2026-05-05 11:42 29.07947 -59.77106 32139 ft 426 kts 247°
2026-05-05 11:43 29.05771 -59.83393 32133 ft 427 kts 247°
2026-05-05 11:43 29.03598 -59.89663 32133 ft 426 kts 247°
2026-05-05 11:44 29.01424 -59.95926 32132 ft 426 kts 247°
2026-05-05 11:44 28.99628 -60.02342 32134 ft 429 kts 258°
2026-05-05 11:45 28.99033 -60.09179 32130 ft 432 kts 262°
2026-05-05 11:45 28.98471 -60.15963 32124 ft 430 kts 261°
2026-05-05 11:46 28.97871 -60.22758 32128 ft 432 kts 261°
2026-05-05 11:46 28.97255 -60.29527 32127 ft 429 kts 261°
2026-05-05 11:47 28.96624 -60.36319 32124 ft 432 kts 261°
2026-05-05 11:47 28.95984 -60.43129 32121 ft 432 kts 261°
2026-05-05 11:48 28.95016 -60.53318 32118 ft 433 kts 261°
2026-05-05 11:48 28.94362 -60.60161 32115 ft 433 kts 261°
2026-05-05 11:49 28.93707 -60.66962 32121 ft 432 kts 260°
2026-05-05 11:49 28.93050 -60.73742 32121 ft 433 kts 260°
2026-05-05 11:50 28.92384 -60.80588 32116 ft 433 kts 260°
2026-05-05 11:50 28.91716 -60.87410 32123 ft 434 kts 261°
2026-05-05 11:51 28.91044 -60.94232 32117 ft 436 kts 261°
2026-05-05 11:51 28.90366 -61.01092 32110 ft 436 kts 261°
2026-05-05 11:52 28.89685 -61.07936 32121 ft 438 kts 260°
2026-05-05 11:52 28.88997 -61.14818 32120 ft 436 kts 260°
2026-05-05 11:53 28.88309 -61.21664 32113 ft 437 kts 261°
2026-05-05 11:53 28.87616 -61.28530 32115 ft 436 kts 260°
2026-05-05 11:54 28.86916 -61.35419 32114 ft 437 kts 260°
2026-05-05 11:54 28.86215 -61.42294 32114 ft 436 kts 260°
2026-05-05 11:55 28.85513 -61.49137 32108 ft 440 kts 260°
2026-05-05 11:55 28.84801 -61.56043 32097 ft 439 kts 260°
2026-05-05 11:56 28.84089 -61.62916 32104 ft 438 kts 260°
2026-05-05 11:56 28.83375 -61.69771 32116 ft 438 kts 259°
2026-05-05 11:57 28.82650 -61.76694 32108 ft 438 kts 259°
2026-05-05 11:57 28.81927 -61.83567 32109 ft 441 kts 259°
2026-05-05 11:58 28.81194 -61.90504 32106 ft 440 kts 259°
2026-05-05 11:58 28.80465 -61.97365 32103 ft 442 kts 259°
2026-05-05 11:59 28.79724 -62.04308 32105 ft 440 kts 259°
2026-05-05 11:59 28.78984 -62.11209 32099 ft 440 kts 259°
2026-05-05 12:00 28.78232 -62.18176 32100 ft 442 kts 259°
2026-05-05 12:00 28.77484 -62.25083 32103 ft 442 kts 259°
2026-05-05 12:01 28.76730 -62.32015 32089 ft 440 kts 259°
2026-05-05 12:01 28.75973 -62.38928 32096 ft 442 kts 259°
2026-05-05 12:02 28.75216 -62.45825 32084 ft 440 kts 259°
2026-05-05 12:02 28.74454 -62.52718 32093 ft 442 kts 259°
2026-05-05 12:03 28.73684 -62.59664 32082 ft 439 kts 259°
2026-05-05 12:03 28.72914 -62.66565 32079 ft 439 kts 258°
2026-05-05 12:04 28.72142 -62.73463 32094 ft 440 kts 258°
2026-05-05 12:04 28.71373 -62.80291 32091 ft 440 kts 258°
2026-05-05 12:05 28.70585 -62.87257 32089 ft 440 kts 259°
2026-05-05 12:05 28.69809 -62.94101 32082 ft 438 kts 258°
2026-05-05 12:06 28.69019 -63.01008 32085 ft 442 kts 259°
2026-05-05 12:06 28.68231 -63.07895 32082 ft 438 kts 259°
2026-05-05 12:07 28.67436 -63.14793 32084 ft 441 kts 259°
2026-05-05 12:07 28.66638 -63.21690 32073 ft 444 kts 259°
2026-05-05 12:08 28.65836 -63.28605 32073 ft 440 kts 259°
2026-05-05 12:08 28.65027 -63.35531 32068 ft 442 kts 258°
2026-05-05 12:09 28.64216 -63.42449 32065 ft 441 kts 258°
2026-05-05 12:09 28.63405 -63.49343 32064 ft 439 kts 259°
2026-05-05 12:10 28.62587 -63.56251 32064 ft 441 kts 258°
2026-05-05 12:10 28.61773 -63.63103 32061 ft 439 kts 259°
2026-05-05 12:11 28.60953 -63.69977 32072 ft 440 kts 258°
2026-05-05 12:11 28.60134 -63.76804 32070 ft 438 kts 258°
2026-05-05 12:12 28.59307 -63.83673 32070 ft 441 kts 258°
2026-05-05 12:12 28.58480 -63.90513 32070 ft 438 kts 258°
2026-05-05 12:13 28.57647 -63.97370 32065 ft 440 kts 258°
2026-05-05 12:13 28.56810 -64.04240 32064 ft 438 kts 258°
2026-05-05 12:14 28.55968 -64.11110 32065 ft 442 kts 258°
2026-05-05 12:14 28.55125 -64.17966 32057 ft 436 kts 258°
2026-05-05 12:15 28.54284 -64.24773 32060 ft 437 kts 258°
2026-05-05 12:15 28.53443 -64.31560 32064 ft 437 kts 259°
2026-05-05 12:16 28.52597 -64.38352 32063 ft 435 kts 258°
2026-05-05 12:16 28.51750 -64.45119 32067 ft 436 kts 258°
2026-05-05 12:17 28.50891 -64.51961 32057 ft 433 kts 258°
2026-05-05 12:17 28.50041 -64.58699 32058 ft 435 kts 258°
2026-05-05 12:18 28.49182 -64.65487 32057 ft 433 kts 258°
2026-05-05 12:18 28.48322 -64.72253 32068 ft 432 kts 258°
2026-05-05 12:19 28.47462 -64.78986 32068 ft 431 kts 258°
2026-05-05 12:19 28.46601 -64.85702 32069 ft 431 kts 258°
2026-05-05 12:20 28.45734 -64.92438 32060 ft 434 kts 258°
2026-05-05 12:20 28.44864 -64.99172 32062 ft 431 kts 258°
2026-05-05 12:21 28.43993 -65.05894 32063 ft 432 kts 258°
2026-05-05 12:21 28.43114 -65.12646 32064 ft 432 kts 258°
2026-05-05 12:22 28.42234 -65.19373 32062 ft 431 kts 258°
2026-05-05 12:22 28.41355 -65.26071 32055 ft 431 kts 258°
2026-05-05 12:23 28.40471 -65.32783 32053 ft 429 kts 258°
2026-05-05 12:23 28.39584 -65.39483 32059 ft 429 kts 258°
2026-05-05 12:24 28.38695 -65.46179 32057 ft 431 kts 258°
2026-05-05 12:24 28.37804 -65.52867 32055 ft 428 kts 258°
2026-05-05 12:25 28.36911 -65.59539 32059 ft 429 kts 258°
2026-05-05 12:25 28.36016 -65.66206 32061 ft 429 kts 257°
2026-05-05 12:26 28.35121 -65.72845 32070 ft 429 kts 257°
2026-05-05 12:26 28.34219 -65.79507 32061 ft 428 kts 257°
2026-05-05 12:27 28.33316 -65.86162 32058 ft 426 kts 257°
2026-05-05 12:27 28.32410 -65.92803 32063 ft 426 kts 257°
2026-05-05 12:28 28.31504 -65.99418 32059 ft 425 kts 257°
2026-05-05 12:28 28.30600 -66.06002 32055 ft 426 kts 257°
2026-05-05 12:29 28.29683 -66.12656 32061 ft 426 kts 257°
2026-05-05 12:29 28.28767 -66.19276 32053 ft 428 kts 257°
2026-05-05 12:30 28.27852 -66.25865 32054 ft 425 kts 257°
2026-05-05 12:30 28.26928 -66.32495 32052 ft 426 kts 258°
2026-05-05 12:31 28.26001 -66.39120 32059 ft 426 kts 258°
2026-05-05 12:31 28.25076 -66.45709 32052 ft 426 kts 258°
2026-05-05 12:32 28.24143 -66.52331 32055 ft 425 kts 257°
2026-05-05 12:32 28.23207 -66.58952 32055 ft 426 kts 258°
2026-05-05 12:33 28.22273 -66.65534 32049 ft 426 kts 257°
2026-05-05 12:33 28.21328 -66.72170 32060 ft 424 kts 257°
2026-05-05 12:34 28.20384 -66.78770 32061 ft 425 kts 257°
2026-05-05 12:34 28.19442 -66.85342 32059 ft 425 kts 257°
2026-05-05 12:35 28.18491 -66.91948 32064 ft 427 kts 257°
2026-05-05 12:35 28.17535 -66.98566 32057 ft 426 kts 258°
2026-05-05 12:36 28.16582 -67.05145 32055 ft 425 kts 258°
2026-05-05 12:36 28.15622 -67.11745 32052 ft 426 kts 257°
2026-05-05 12:37 28.14656 -67.18363 32053 ft 426 kts 257°
2026-05-05 12:37 28.13691 -67.24950 32053 ft 424 kts 258°
2026-05-05 12:38 28.12722 -67.31544 32052 ft 426 kts 258°
2026-05-05 12:38 28.11751 -67.38130 32052 ft 426 kts 257°
2026-05-05 12:39 28.10776 -67.44718 32050 ft 425 kts 258°
2026-05-05 12:39 28.09799 -67.51299 32043 ft 425 kts 257°
2026-05-05 12:40 28.08820 -67.57873 32053 ft 426 kts 258°
2026-05-05 12:40 28.07833 -67.64471 32047 ft 426 kts 258°
2026-05-05 12:41 28.06847 -67.71051 32059 ft 426 kts 257°
2026-05-05 12:41 28.05855 -67.77640 32056 ft 426 kts 257°
2026-05-05 12:42 28.04860 -67.84229 32058 ft 425 kts 257°
2026-05-05 12:42 28.03868 -67.90780 32056 ft 425 kts 257°
2026-05-05 12:43 28.02865 -67.97379 32053 ft 426 kts 257°
2026-05-05 12:43 28.01862 -68.03952 32052 ft 425 kts 258°
2026-05-05 12:44 28.00858 -68.10519 32053 ft 424 kts 257°
2026-05-05 12:44 27.99850 -68.17082 32060 ft 424 kts 258°
2026-05-05 12:45 27.98838 -68.23649 32068 ft 425 kts 258°
2026-05-05 12:45 27.97828 -68.30188 32067 ft 426 kts 258°
2026-05-05 12:46 27.96809 -68.36761 32064 ft 424 kts 258°
2026-05-05 12:46 27.95787 -68.43330 32066 ft 425 kts 258°
2026-05-05 12:47 27.94763 -68.49895 32064 ft 424 kts 258°
2026-05-05 12:47 27.93739 -68.56438 32062 ft 425 kts 258°
2026-05-05 12:48 27.92703 -68.63026 32061 ft 424 kts 258°
2026-05-05 12:48 27.91676 -68.69533 32076 ft 424 kts 258°
2026-05-05 12:49 27.90635 -68.76112 32077 ft 425 kts 257°
2026-05-05 12:49 27.89601 -68.82627 32082 ft 424 kts 258°
2026-05-05 12:50 27.88561 -68.89162 32074 ft 423 kts 257°
2026-05-05 12:50 27.87519 -68.95683 32076 ft 423 kts 258°
2026-05-05 12:51 27.86472 -69.02215 32070 ft 423 kts 258°
2026-05-05 12:51 27.85424 -69.08735 32072 ft 423 kts 258°
2026-05-05 12:52 27.84373 -69.15255 32073 ft 423 kts 258°
2026-05-05 12:52 27.83316 -69.21790 32074 ft 422 kts 258°
2026-05-05 12:53 27.82261 -69.28291 32069 ft 422 kts 258°
2026-05-05 12:53 27.81204 -69.34786 32064 ft 423 kts 258°
2026-05-05 12:54 27.79606 -69.44567 32070 ft 421 kts 258°
2026-05-05 12:55 27.78542 -69.51051 32065 ft 422 kts 258°
2026-05-05 12:55 27.77473 -69.57553 32068 ft 421 kts 258°
2026-05-05 12:56 27.76400 -69.64053 32064 ft 423 kts 258°
2026-05-05 12:56 27.75329 -69.70526 32075 ft 420 kts 258°
2026-05-05 12:57 27.74252 -69.77014 32077 ft 422 kts 257°
2026-05-05 12:57 27.73171 -69.83505 32076 ft 422 kts 257°
2026-05-05 12:58 27.72093 -69.89958 32075 ft 421 kts 258°
2026-05-05 12:58 27.71005 -69.96447 32075 ft 421 kts 258°
2026-05-05 12:59 27.69920 -70.02908 32070 ft 419 kts 257°
2026-05-05 12:59 27.68831 -70.09367 32080 ft 422 kts 258°
2026-05-05 13:00 27.67193 -70.19051 32075 ft 420 kts 258°
2026-05-05 13:01 27.64998 -70.31963 32073 ft 420 kts 258°
2026-05-05 13:01 27.63892 -70.38438 32076 ft 420 kts 258°
2026-05-05 13:02 27.62790 -70.44868 32069 ft 420 kts 258°
2026-05-05 13:02 27.61686 -70.51296 32075 ft 419 kts 258°
2026-05-05 13:03 27.60574 -70.57755 32081 ft 419 kts 258°
2026-05-05 13:03 27.59458 -70.64214 32075 ft 419 kts 258°
2026-05-05 13:04 27.58344 -70.70644 32094 ft 419 kts 257°
2026-05-05 13:04 27.57230 -70.77055 32090 ft 418 kts 257°
2026-05-05 13:05 27.56112 -70.83469 32087 ft 419 kts 258°
2026-05-05 13:05 27.54988 -70.89900 32088 ft 419 kts 257°
2026-05-05 13:06 27.53859 -70.96343 32088 ft 419 kts 257°
2026-05-05 13:06 27.52733 -71.02753 32079 ft 418 kts 258°
2026-05-05 13:07 27.51604 -71.09152 32085 ft 419 kts 258°
2026-05-05 13:07 27.50471 -71.15562 32083 ft 420 kts 258°
2026-05-05 13:08 27.49331 -71.21993 32080 ft 418 kts 257°
2026-05-05 13:08 27.48189 -71.28413 32086 ft 418 kts 257°
2026-05-05 13:09 27.47047 -71.34817 32079 ft 418 kts 257°
2026-05-05 13:09 27.45902 -71.41219 32085 ft 417 kts 258°
2026-05-05 13:10 27.44757 -71.47609 32080 ft 419 kts 257°
2026-05-05 13:10 27.43602 -71.54031 32088 ft 419 kts 257°
2026-05-05 13:11 27.42445 -71.60450 32091 ft 418 kts 258°
2026-05-05 13:11 27.41285 -71.66864 32094 ft 420 kts 257°
2026-05-05 13:12 27.40126 -71.73261 32108 ft 419 kts 257°
2026-05-05 13:12 27.38970 -71.79619 32096 ft 418 kts 258°
2026-05-05 13:13 27.37803 -71.86025 32102 ft 420 kts 258°
2026-05-05 13:13 27.36633 -71.92422 32097 ft 417 kts 257°
2026-05-05 13:14 27.35459 -71.98830 32093 ft 419 kts 257°
2026-05-05 13:14 27.34278 -72.05255 32104 ft 419 kts 258°
2026-05-05 13:15 27.33105 -72.11625 32101 ft 418 kts 258°
2026-05-05 13:15 27.31926 -72.18008 32101 ft 419 kts 258°
2026-05-05 13:16 27.30738 -72.24417 32093 ft 419 kts 258°
2026-05-05 13:16 27.29554 -72.30797 32094 ft 418 kts 258°
2026-05-05 13:17 27.28358 -72.37217 32093 ft 421 kts 258°
2026-05-05 13:17 27.27164 -72.43615 32094 ft 420 kts 258°
2026-05-05 13:18 27.25971 -72.49983 32087 ft 419 kts 258°
2026-05-05 13:18 27.24770 -72.56384 32090 ft 420 kts 258°
2026-05-05 13:19 27.23564 -72.62793 32096 ft 425 kts 258°
2026-05-05 13:19 27.22947 -72.66062 32481 ft 427 kts 258°
2026-05-05 13:19 27.22341 -72.69273 33288 ft 420 kts 258°
2026-05-05 13:20 27.21740 -72.72453 33985 ft 415 kts 258°
2026-05-05 13:20 27.21147 -72.75584 34094 ft 414 kts 258°
2026-05-05 13:20 27.19950 -72.81892 34099 ft 412 kts 259°
2026-05-05 13:21 27.18763 -72.88135 34100 ft 409 kts 258°
2026-05-05 13:21 27.17568 -72.94400 34094 ft 411 kts 258°
2026-05-05 13:22 27.16369 -73.00674 34099 ft 414 kts 259°
2026-05-05 13:22 27.15159 -73.06991 34098 ft 414 kts 258°
2026-05-05 13:23 27.13952 -73.13269 34099 ft 412 kts 259°
2026-05-05 13:23 27.12748 -73.19524 34089 ft 414 kts 259°
2026-05-05 13:24 27.11529 -73.25836 34091 ft 412 kts 259°
2026-05-05 13:24 27.10311 -73.32126 34088 ft 413 kts 259°
2026-05-05 13:25 27.09089 -73.38425 34097 ft 412 kts 259°
2026-05-05 13:25 27.07872 -73.44677 34087 ft 412 kts 259°
2026-05-05 13:26 27.06649 -73.50948 34087 ft 414 kts 259°
2026-05-05 13:26 27.05427 -73.57201 34084 ft 413 kts 259°
2026-05-05 13:27 27.04190 -73.63511 34083 ft 412 kts 259°
2026-05-05 13:27 27.02959 -73.69779 34100 ft 413 kts 259°
2026-05-05 13:28 27.01720 -73.76065 34104 ft 414 kts 259°
2026-05-05 13:28 27.00484 -73.82324 34096 ft 411 kts 259°
2026-05-05 13:29 26.99243 -73.88592 34096 ft 413 kts 259°
2026-05-05 13:29 26.97999 -73.94865 34095 ft 414 kts 259°
2026-05-05 13:30 26.96755 -74.01118 34092 ft 414 kts 259°
2026-05-05 13:30 26.95504 -74.07389 34089 ft 414 kts 259°
2026-05-05 13:31 26.94246 -74.13683 34090 ft 415 kts 259°
2026-05-05 13:31 26.92994 -74.19930 34082 ft 411 kts 260°
2026-05-05 13:32 26.91718 -74.26238 34075 ft 414 kts 257°
2026-05-05 13:32 26.89349 -74.32098 34084 ft 419 kts 243°
2026-05-05 13:33 26.86239 -74.37659 34083 ft 423 kts 242°
2026-05-05 13:33 26.83091 -74.43213 34077 ft 424 kts 242°
2026-05-05 13:34 26.79925 -74.48767 34077 ft 425 kts 242°
2026-05-05 13:34 26.76755 -74.54310 34071 ft 423 kts 242°
2026-05-05 13:35 26.73598 -74.59818 34074 ft 423 kts 242°
2026-05-05 13:35 26.70404 -74.65380 34071 ft 422 kts 242°
2026-05-05 13:36 26.67236 -74.70890 34084 ft 424 kts 242°
2026-05-05 13:36 26.64036 -74.76447 34083 ft 426 kts 242°
2026-05-05 13:37 26.60847 -74.81995 34078 ft 424 kts 242°
2026-05-05 13:37 26.57664 -74.87532 34076 ft 426 kts 243°
2026-05-05 13:38 26.54447 -74.93121 34077 ft 427 kts 242°
2026-05-05 13:38 26.51235 -74.98694 34075 ft 426 kts 242°
2026-05-05 13:39 26.48042 -75.04225 34073 ft 428 kts 243°
2026-05-05 13:39 26.44956 -75.09935 34070 ft 429 kts 245°
2026-05-05 13:40 26.41990 -75.15637 34070 ft 427 kts 245°
2026-05-05 13:40 26.39002 -75.21376 34071 ft 429 kts 245°
2026-05-05 13:41 26.36006 -75.27119 34069 ft 426 kts 245°
2026-05-05 13:41 26.33006 -75.32867 34069 ft 431 kts 245°
2026-05-05 13:42 26.30027 -75.38565 34070 ft 429 kts 245°
2026-05-05 13:42 26.27005 -75.44338 34068 ft 430 kts 245°
2026-05-05 13:43 26.24002 -75.50068 34068 ft 433 kts 245°
2026-05-05 13:43 26.20971 -75.55842 34065 ft 428 kts 245°
2026-05-05 13:44 26.17962 -75.61570 34069 ft 431 kts 245°
2026-05-05 13:44 26.14941 -75.67310 34082 ft 431 kts 245°
2026-05-05 13:45 26.11907 -75.73068 34080 ft 430 kts 245°
2026-05-05 13:45 26.08868 -75.78831 34081 ft 433 kts 245°
2026-05-05 13:46 26.05851 -75.84540 34079 ft 431 kts 245°
2026-05-05 13:46 26.02789 -75.90331 34079 ft 433 kts 245°
2026-05-05 13:47 25.99738 -75.96092 34079 ft 435 kts 245°
2026-05-05 13:47 25.96710 -76.01801 34076 ft 433 kts 245°
2026-05-05 13:48 25.93623 -76.07616 34069 ft 434 kts 245°
2026-05-05 13:48 25.90563 -76.13371 34071 ft 433 kts 245°
2026-05-05 13:49 25.87496 -76.19132 34052 ft 435 kts 245°
2026-05-05 13:49 25.84439 -76.24867 34059 ft 434 kts 245°
2026-05-05 13:50 25.81365 -76.30626 34052 ft 433 kts 245°
2026-05-05 13:50 25.78290 -76.36383 34050 ft 436 kts 245°
2026-05-05 13:51 25.75198 -76.42161 34040 ft 436 kts 245°
2026-05-05 13:51 25.72109 -76.47926 34045 ft 433 kts 245°
2026-05-05 13:52 25.69031 -76.53664 34039 ft 436 kts 245°
2026-05-05 13:52 25.65924 -76.59450 34042 ft 440 kts 245°
2026-05-05 13:53 25.62815 -76.65230 34033 ft 436 kts 245°
2026-05-05 13:53 25.59710 -76.70995 34048 ft 434 kts 245°
2026-05-05 13:54 25.56598 -76.76769 34042 ft 439 kts 245°
2026-05-05 13:54 25.53465 -76.82571 34044 ft 436 kts 245°
2026-05-05 13:55 25.50366 -76.88304 34044 ft 440 kts 245°
2026-05-05 13:55 25.47226 -76.94106 34041 ft 438 kts 245°
2026-05-05 13:56 25.44110 -76.99855 34045 ft 438 kts 245°
2026-05-05 13:56 25.40964 -77.05653 34052 ft 440 kts 245°
2026-05-05 13:57 25.37830 -77.11420 34043 ft 441 kts 245°
2026-05-05 13:57 25.34663 -77.17243 34048 ft 441 kts 245°
2026-05-05 13:58 25.31495 -77.23060 34040 ft 442 kts 246°
2026-05-05 13:58 25.28324 -77.28874 34043 ft 444 kts 245°
2026-05-05 13:59 25.23531 -77.37648 34036 ft 445 kts 245°
2026-05-05 14:00 25.18747 -77.46388 34037 ft 447 kts 246°
2026-05-05 14:00 25.15550 -77.52217 34028 ft 444 kts 246°
2026-05-05 14:01 25.12351 -77.58046 34027 ft 448 kts 246°
2026-05-05 14:01 25.09132 -77.63902 34026 ft 445 kts 246°
2026-05-05 14:02 25.05902 -77.69773 34037 ft 448 kts 246°
2026-05-05 14:02 25.02669 -77.75640 34041 ft 449 kts 246°
2026-05-05 14:03 24.99413 -77.81542 34036 ft 452 kts 246°
2026-05-05 14:03 24.96163 -77.87425 34027 ft 453 kts 246°
2026-05-05 14:04 24.92889 -77.93343 34020 ft 450 kts 246°
2026-05-05 14:04 24.89598 -77.99287 34017 ft 455 kts 246°
2026-05-05 14:05 24.86317 -78.05201 34009 ft 454 kts 247°
2026-05-05 14:05 24.83014 -78.11150 34011 ft 455 kts 247°
2026-05-05 14:06 24.79731 -78.17055 34009 ft 457 kts 247°
2026-05-05 14:06 24.76415 -78.23012 34010 ft 459 kts 247°
2026-05-05 14:07 24.73097 -78.28961 34013 ft 458 kts 246°
2026-05-05 14:07 24.69783 -78.34897 34010 ft 455 kts 247°
2026-05-05 14:08 24.66471 -78.40823 34008 ft 459 kts 247°
2026-05-05 14:08 24.63134 -78.46785 34007 ft 457 kts 247°
2026-05-05 14:09 24.59815 -78.52706 34007 ft 457 kts 247°
2026-05-05 14:09 24.56449 -78.58707 34010 ft 461 kts 247°
2026-05-05 14:10 24.53122 -78.64624 34013 ft 459 kts 247°
2026-05-05 14:10 24.49753 -78.70615 34022 ft 460 kts 247°
2026-05-05 14:11 24.46366 -78.76627 34029 ft 463 kts 246°
2026-05-05 14:11 24.42988 -78.82615 34022 ft 464 kts 246°
2026-05-05 14:12 24.39617 -78.88578 34027 ft 462 kts 247°
2026-05-05 14:12 24.36218 -78.94589 34026 ft 466 kts 246°
2026-05-05 14:13 24.32820 -79.00588 34028 ft 464 kts 247°
2026-05-05 14:13 24.29399 -79.06615 34026 ft 463 kts 247°
2026-05-05 14:14 24.25987 -79.12626 34028 ft 467 kts 246°
2026-05-05 14:14 24.22570 -79.18628 34030 ft 465 kts 246°
2026-05-05 14:15 24.19152 -79.24627 34031 ft 463 kts 246°
2026-05-05 14:15 24.15732 -79.30618 34029 ft 462 kts 246°
2026-05-05 14:16 24.12320 -79.36590 34036 ft 465 kts 246°
2026-05-05 14:16 24.08901 -79.42563 34034 ft 466 kts 246°
2026-05-05 14:17 24.05477 -79.48532 34037 ft 468 kts 246°
2026-05-05 14:17 24.02599 -79.54760 34031 ft 449 kts 260°
2026-05-05 14:18 24.00814 -79.61292 34033 ft 450 kts 262°
2026-05-05 14:18 23.99076 -79.67808 34047 ft 447 kts 262°
2026-05-05 14:19 23.97333 -79.74365 34044 ft 447 kts 262°
2026-05-05 14:19 23.95607 -79.80862 34046 ft 447 kts 262°
2026-05-05 14:20 23.93875 -79.87378 34043 ft 447 kts 262°
2026-05-05 14:20 23.92142 -79.93884 34040 ft 447 kts 262°
2026-05-05 14:21 23.90397 -80.00427 34043 ft 447 kts 262°
2026-05-05 14:21 23.88656 -80.06950 34027 ft 450 kts 262°
2026-05-05 14:22 23.86908 -80.13484 34027 ft 450 kts 261°
2026-05-05 14:22 23.85157 -80.20019 34026 ft 450 kts 261°
2026-05-05 14:23 23.83404 -80.26548 34026 ft 451 kts 262°
2026-05-05 14:23 23.81640 -80.33103 34024 ft 452 kts 262°
2026-05-05 14:24 23.79865 -80.39693 34025 ft 452 kts 261°
2026-05-05 14:24 23.78100 -80.46225 34022 ft 450 kts 261°
2026-05-05 14:25 23.76334 -80.52757 34022 ft 451 kts 261°
2026-05-05 14:25 23.74558 -80.59292 34002 ft 450 kts 260°
2026-05-05 14:26 23.73482 -80.62471 33108 ft 449 kts 256°
2026-05-05 14:26 23.72305 -80.65642 31683 ft 454 kts 255°
2026-05-05 14:26 23.71127 -80.68806 30277 ft 463 kts 254°
2026-05-05 14:26 23.69906 -80.72076 29357 ft 463 kts 253°
2026-05-05 14:27 23.68701 -80.75290 28779 ft 456 kts 253°
2026-05-05 14:27 23.67509 -80.78465 28313 ft 448 kts 253°
2026-05-05 14:27 23.66352 -80.81545 27769 ft 442 kts 253°
2026-05-05 14:27 23.65193 -80.84631 27136 ft 438 kts 253°
2026-05-05 14:28 23.64043 -80.87691 26511 ft 434 kts 253°
2026-05-05 14:28 23.62900 -80.90731 25787 ft 432 kts 253°
2026-05-05 14:28 23.61779 -80.93712 25147 ft 428 kts 252°
2026-05-05 14:28 23.60656 -80.96695 24585 ft 423 kts 252°
2026-05-05 14:29 23.59554 -80.99618 24060 ft 416 kts 252°
2026-05-05 14:29 23.58459 -81.02522 23533 ft 410 kts 252°
2026-05-05 14:29 23.57385 -81.05366 23016 ft 405 kts 252°
2026-05-05 14:29 23.56322 -81.08181 22503 ft 399 kts 252°
2026-05-05 14:30 23.55279 -81.10942 21994 ft 394 kts 252°
2026-05-05 14:30 23.54249 -81.13665 21491 ft 390 kts 252°
2026-05-05 14:30 23.53215 -81.16398 20986 ft 386 kts 252°
2026-05-05 14:30 23.52195 -81.19092 20476 ft 383 kts 252°
2026-05-05 14:31 23.51194 -81.21737 19966 ft 380 kts 252°
2026-05-05 14:31 23.50192 -81.24382 19467 ft 381 kts 252°
2026-05-05 14:31 23.49162 -81.27108 18945 ft 391 kts 252°
2026-05-05 14:31 23.48136 -81.29815 18415 ft 390 kts 252°
2026-05-05 14:32 23.47098 -81.32546 17891 ft 387 kts 253°
2026-05-05 14:32 23.46084 -81.35215 17365 ft 384 kts 253°
2026-05-05 14:32 23.45067 -81.37893 16849 ft 380 kts 252°
2026-05-05 14:32 23.44066 -81.40524 16332 ft 377 kts 252°
2026-05-05 14:33 23.43061 -81.43164 15813 ft 375 kts 252°
2026-05-05 14:33 23.42077 -81.45748 15298 ft 372 kts 251°
2026-05-05 14:33 23.41096 -81.48322 14776 ft 370 kts 251°
2026-05-05 14:33 23.40110 -81.50909 14262 ft 367 kts 251°
2026-05-05 14:34 23.39136 -81.53463 13738 ft 364 kts 250°
2026-05-05 14:34 23.38170 -81.55994 13229 ft 362 kts 250°
2026-05-05 14:34 23.37215 -81.58496 12723 ft 359 kts 249°
2026-05-05 14:34 23.36256 -81.61005 12212 ft 357 kts 249°
2026-05-05 14:35 23.35319 -81.63455 11709 ft 354 kts 249°
2026-05-05 14:35 23.34373 -81.65927 11198 ft 351 kts 249°
2026-05-05 14:35 23.33439 -81.68367 10828 ft 344 kts 249°
2026-05-05 14:35 23.32546 -81.70698 10749 ft 329 kts 249°
2026-05-05 14:36 23.31678 -81.72959 10644 ft 315 kts 249°
2026-05-05 14:36 23.30858 -81.75096 10521 ft 303 kts 249°
2026-05-05 14:36 23.30049 -81.77201 10379 ft 292 kts 249°
2026-05-05 14:36 23.29289 -81.79178 10252 ft 281 kts 249°
2026-05-05 14:37 23.28543 -81.81118 10125 ft 271 kts 249°
2026-05-05 14:37 23.27824 -81.82989 9783 ft 270 kts 249°
2026-05-05 14:37 23.27094 -81.84889 9373 ft 271 kts 249°
2026-05-05 14:37 23.26376 -81.86756 9021 ft 270 kts 248°
2026-05-05 14:38 23.25654 -81.88631 8671 ft 269 kts 248°
2026-05-05 14:38 23.24932 -81.90507 8327 ft 268 kts 248°
2026-05-05 14:38 23.24211 -81.92378 7991 ft 266 kts 248°
2026-05-05 14:38 23.23496 -81.94232 7650 ft 265 kts 248°
2026-05-05 14:39 23.22792 -81.96059 7320 ft 264 kts 248°
2026-05-05 14:39 23.22077 -81.97910 6989 ft 263 kts 248°
2026-05-05 14:39 23.21379 -81.99718 6664 ft 262 kts 248°
2026-05-05 14:39 23.20672 -82.01547 6335 ft 261 kts 248°
2026-05-05 14:40 23.19979 -82.03340 6014 ft 259 kts 248°
2026-05-05 14:40 23.19279 -82.05150 5694 ft 258 kts 248°
2026-05-05 14:40 23.18587 -82.06936 5382 ft 257 kts 248°
2026-05-05 14:40 23.17899 -82.08710 5072 ft 255 kts 248°
2026-05-05 14:41 23.17203 -82.10504 4761 ft 254 kts 248°
2026-05-05 14:41 23.16527 -82.12247 4462 ft 253 kts 248°
2026-05-05 14:41 23.15843 -82.14005 4153 ft 252 kts 248°
2026-05-05 14:41 23.15158 -82.15762 3821 ft 252 kts 247°
2026-05-05 14:42 23.14391 -82.17461 3497 ft 250 kts 238°
2026-05-05 14:42 23.13396 -82.18987 3202 ft 246 kts 234°
2026-05-05 14:42 23.12377 -82.20463 2900 ft 242 kts 234°
2026-05-05 14:42 23.11377 -82.21909 2627 ft 235 kts 234°
2026-05-05 14:43 23.10419 -82.23296 2461 ft 223 kts 234°
2026-05-05 14:43 23.09543 -82.24625 2398 ft 207 kts 237°
2026-05-05 14:43 23.08756 -82.25871 2339 ft 195 kts 237°
2026-05-05 14:43 23.07998 -82.27065 2264 ft 186 kts 236°
2026-05-05 14:44 23.07277 -82.28191 2183 ft 178 kts 236°
2026-05-05 14:44 23.06574 -82.29288 2106 ft 175 kts 237°
2026-05-05 14:44 23.05878 -82.30377 2037 ft 174 kts 236°
2026-05-05 14:44 23.05183 -82.31459 1964 ft 174 kts 236°
2026-05-05 14:45 23.04472 -82.32536 1756 ft 177 kts 235°
2026-05-05 14:45 23.03770 -82.33589 1490 ft 165 kts 236°
2026-05-05 14:45 23.03122 -82.34567 1261 ft 155 kts 235°
2026-05-05 14:45 23.02497 -82.35519 1062 ft 154 kts 234°
2026-05-05 14:46 23.01853 -82.36449 904 ft 155 kts 234°
2026-05-05 14:46 23.01237 -82.37407 693 ft 154 kts 235°
2026-05-05 14:46 23.00611 -82.38351 479 ft 153 kts 235°
2026-05-05 14:46 23.00000 -82.39272 278 ft 150 kts 234°
2026-05-05 14:47 22.99409 -82.40168 218 ft 132 kts 234°
2026-05-05 14:47 22.98941 -82.40871 216 ft 97 kts 234°
2026-05-05 14:47 22.98613 -82.41363 221 ft 63 kts 234°
2026-05-05 14:47 22.98429 -82.41644 226 ft 28 kts 234°
2026-05-05 14:48 22.98329 -82.41793 228 ft 22 kts 234°
2026-05-05 14:48 22.98247 -82.41916 229 ft 16 kts 234°
2026-05-05 14:48 22.98188 -82.42004 229 ft 13 kts 234°
2026-05-05 14:48 22.98158 -82.42064 229 ft 7 kts 270°
2026-05-05 14:49 22.98187 -82.42112 229 ft 7 kts 321°
2026-05-05 14:49 22.98226 -82.42142 229 ft 6 kts 326°
2026-05-05 14:49 22.98259 -82.42164 230 ft 5 kts 336°
2026-05-05 14:49 22.98296 -82.42158 230 ft 6 kts 39°
2026-05-05 14:50 22.98330 -82.42112 230 ft 8 kts 54°
2026-05-05 14:50 22.98363 -82.42062 229 ft 8 kts 55°
2026-05-05 14:50 22.98399 -82.42007 229 ft 9 kts 54°
2026-05-05 14:50 22.98439 -82.41947 228 ft 10 kts 54°
2026-05-05 14:51 22.98480 -82.41884 228 ft 10 kts 55°
2026-05-05 14:51 22.98526 -82.41814 227 ft 11 kts 54°
2026-05-05 14:51 22.98575 -82.41740 226 ft 12 kts 54°
2026-05-05 14:51 22.98628 -82.41660 224 ft 13 kts 54°
2026-05-05 14:52 22.98686 -82.41573 222 ft 14 kts 54°
2026-05-05 14:52 22.98746 -82.41484 221 ft 14 kts 54°
2026-05-05 14:52 22.98805 -82.41395 222 ft 13 kts 54°
2026-05-05 14:52 22.98861 -82.41311 221 ft 14 kts 55°
2026-05-05 14:53 22.98921 -82.41219 219 ft 15 kts 54°
2026-05-05 14:53 22.98984 -82.41125 218 ft 15 kts 54°
2026-05-05 14:53 22.99046 -82.41033 218 ft 14 kts 55°
2026-05-05 14:53 22.99106 -82.40942 218 ft 14 kts 54°
2026-05-05 14:54 22.99163 -82.40857 218 ft 13 kts 54°
2026-05-05 14:54 22.99207 -82.40791 218 ft 8 kts 54°
2026-05-05 14:54 22.99250 -82.40779 218 ft 6 kts 342°
2026-05-05 14:54 22.99285 -82.40801 219 ft 5 kts 328°
2026-05-05 14:55 22.99314 -82.40820 220 ft 4 kts 328°
2026-05-05 14:55 22.99338 -82.40836 221 ft 3 kts 336°
2026-05-05 14:55 22.99367 -82.40833 222 ft 5 kts 24°
2026-05-05 14:55 22.99397 -82.40801 222 ft 7 kts 56°
2026-05-05 14:56 22.99431 -82.40748 223 ft 9 kts 55°
2026-05-05 14:56 22.99476 -82.40703 224 ft 8 kts 13°
2026-05-05 14:56 22.99520 -82.40719 226 ft 5 kts 327°
2026-05-05 14:56 22.99547 -82.40733 226 ft 2 kts 350°
2026-05-05 14:57 22.99556 -82.40733 226 ft 0 kts
2026-05-05 14:57 22.99560 -82.40732 227 ft 1 kts 14°
2026-05-05 14:57 22.99577 -82.40723 227 ft 2 kts 30°
2026-05-05 14:58 22.99588 -82.40717 227 ft 1 kts 30°
2026-05-05 14:58 22.99594 -82.40713 228 ft 0 kts 30°
2026-05-05 14:58 22.99595 -82.40712 228 ft 0 kts 30°